<?xml version="1.0" encoding="UTF-8" standalone="no" ?>
<gpx xmlns="http://www.topografix.com/GPX/1/1" xmlns:xsi="http://www.w3.org/2001/XMLSchema-instance" xsi:schemaLocation="http://www.topografix.com/GPX/1/1 http://www.topografix.com/GPX/1/1/gpx.xsd" version="1.1" creator="VisuGPX - https://www.visugpx.com">
  <metadata>
    <name>Baroudeurs 82 2020</name>
    <desc><![CDATA[Circuit pour le groupe de baroudeurs 82 Salagou Mania 2020]]></desc>
  </metadata>
  <trk>
    <name><![CDATA[20170917183554-jmsKo]]></name>
    <trkseg>
      <trkpt lat="43.64665" lon="3.38889">
        <ele>144</ele>
        <time>2017-09-17T18:34:54Z</time>
      </trkpt>
      <trkpt lat="43.64677" lon="3.38805">
        <ele>142</ele>
        <time>2017-09-17T18:34:54Z</time>
      </trkpt>
      <trkpt lat="43.64649" lon="3.38765">
        <ele>142</ele>
        <time>2017-09-17T18:34:54Z</time>
      </trkpt>
      <trkpt lat="43.64593" lon="3.38689">
        <ele>141</ele>
        <time>2017-09-17T18:34:54Z</time>
      </trkpt>
      <trkpt lat="43.64517" lon="3.38648">
        <ele>140</ele>
        <time>2017-09-17T18:34:54Z</time>
      </trkpt>
      <trkpt lat="43.64441" lon="3.38594">
        <ele>140</ele>
        <time>2017-09-17T18:34:54Z</time>
      </trkpt>
      <trkpt lat="43.64437" lon="3.38529">
        <ele>138</ele>
        <time>2017-09-17T18:34:54Z</time>
      </trkpt>
      <trkpt lat="43.64393" lon="3.38478">
        <ele>139</ele>
        <time>2017-09-17T18:34:54Z</time>
      </trkpt>
      <trkpt lat="43.6437" lon="3.38435">
        <ele>139</ele>
        <time>2017-09-17T18:34:54Z</time>
      </trkpt>
      <trkpt lat="43.64409" lon="3.38308">
        <ele>139</ele>
        <time>2017-09-17T18:34:54Z</time>
      </trkpt>
      <trkpt lat="43.64395" lon="3.3818">
        <ele>140</ele>
        <time>2017-09-17T18:34:54Z</time>
      </trkpt>
      <trkpt lat="43.64382" lon="3.3808">
        <ele>139</ele>
        <time>2017-09-17T18:34:54Z</time>
      </trkpt>
      <trkpt lat="43.64347" lon="3.38013">
        <ele>139</ele>
        <time>2017-09-17T18:34:54Z</time>
      </trkpt>
      <trkpt lat="43.64374" lon="3.37912">
        <ele>139</ele>
        <time>2017-09-17T18:34:54Z</time>
      </trkpt>
      <trkpt lat="43.64396" lon="3.37828">
        <ele>140</ele>
        <time>2017-09-17T18:34:54Z</time>
      </trkpt>
      <trkpt lat="43.64401" lon="3.37728">
        <ele>140</ele>
        <time>2017-09-17T18:34:54Z</time>
      </trkpt>
      <trkpt lat="43.64411" lon="3.37672">
        <ele>140</ele>
        <time>2017-09-17T18:34:54Z</time>
      </trkpt>
      <trkpt lat="43.64464" lon="3.37483">
        <ele>137</ele>
        <time>2017-09-17T18:34:54Z</time>
      </trkpt>
      <trkpt lat="43.64467" lon="3.37448">
        <ele>137</ele>
        <time>2017-09-17T18:34:54Z</time>
      </trkpt>
      <trkpt lat="43.64451" lon="3.37351">
        <ele>138</ele>
        <time>2017-09-17T18:34:54Z</time>
      </trkpt>
      <trkpt lat="43.64414" lon="3.37267">
        <ele>140</ele>
        <time>2017-09-17T18:34:54Z</time>
      </trkpt>
      <trkpt lat="43.64357" lon="3.37172">
        <ele>143</ele>
        <time>2017-09-17T18:34:54Z</time>
      </trkpt>
      <trkpt lat="43.64316" lon="3.37131">
        <ele>143</ele>
        <time>2017-09-17T18:34:54Z</time>
      </trkpt>
      <trkpt lat="43.64295" lon="3.37045">
        <ele>142</ele>
        <time>2017-09-17T18:34:54Z</time>
      </trkpt>
      <trkpt lat="43.64303" lon="3.36932">
        <ele>142</ele>
        <time>2017-09-17T18:34:54Z</time>
      </trkpt>
      <trkpt lat="43.64305" lon="3.36854">
        <ele>143</ele>
        <time>2017-09-17T18:34:54Z</time>
      </trkpt>
      <trkpt lat="43.64285" lon="3.36781">
        <ele>142</ele>
        <time>2017-09-17T18:34:54Z</time>
      </trkpt>
      <trkpt lat="43.64307" lon="3.36685">
        <ele>138</ele>
        <time>2017-09-17T18:34:54Z</time>
      </trkpt>
      <trkpt lat="43.64294" lon="3.36615">
        <ele>138</ele>
        <time>2017-09-17T18:34:54Z</time>
      </trkpt>
      <trkpt lat="43.64282" lon="3.36565">
        <ele>139</ele>
        <time>2017-09-17T18:34:54Z</time>
      </trkpt>
      <trkpt lat="43.64283" lon="3.36493">
        <ele>142</ele>
        <time>2017-09-17T18:34:54Z</time>
      </trkpt>
      <trkpt lat="43.64288" lon="3.36429">
        <ele>144</ele>
        <time>2017-09-17T18:34:54Z</time>
      </trkpt>
      <trkpt lat="43.643" lon="3.36348">
        <ele>147</ele>
        <time>2017-09-17T18:34:54Z</time>
      </trkpt>
      <trkpt lat="43.64292" lon="3.36296">
        <ele>150</ele>
        <time>2017-09-17T18:34:54Z</time>
      </trkpt>
      <trkpt lat="43.64292" lon="3.36199">
        <ele>153</ele>
        <time>2017-09-17T18:34:54Z</time>
      </trkpt>
      <trkpt lat="43.64378" lon="3.36131">
        <ele>150</ele>
        <time>2017-09-17T18:34:54Z</time>
      </trkpt>
      <trkpt lat="43.64439" lon="3.3609">
        <ele>148</ele>
        <time>2017-09-17T18:34:54Z</time>
      </trkpt>
      <trkpt lat="43.64506" lon="3.36053">
        <ele>145</ele>
        <time>2017-09-17T18:34:54Z</time>
      </trkpt>
      <trkpt lat="43.64576" lon="3.36007">
        <ele>143</ele>
        <time>2017-09-17T18:34:54Z</time>
      </trkpt>
      <trkpt lat="43.64592" lon="3.35997">
        <ele>142</ele>
        <time>2017-09-17T18:34:54Z</time>
      </trkpt>
      <trkpt lat="43.64644" lon="3.35979">
        <ele>143</ele>
        <time>2017-09-17T18:34:54Z</time>
      </trkpt>
      <trkpt lat="43.64663" lon="3.36015">
        <ele>141</ele>
        <time>2017-09-17T18:34:54Z</time>
      </trkpt>
      <trkpt lat="43.64704" lon="3.36079">
        <ele>138</ele>
        <time>2017-09-17T18:34:54Z</time>
      </trkpt>
      <trkpt lat="43.64752" lon="3.36054">
        <ele>137</ele>
        <time>2017-09-17T18:34:54Z</time>
      </trkpt>
      <trkpt lat="43.64782" lon="3.36025">
        <ele>137</ele>
        <time>2017-09-17T18:34:54Z</time>
      </trkpt>
      <trkpt lat="43.64812" lon="3.35936">
        <ele>141</ele>
        <time>2017-09-17T18:34:54Z</time>
      </trkpt>
      <trkpt lat="43.64848" lon="3.35825">
        <ele>138</ele>
        <time>2017-09-17T18:34:54Z</time>
      </trkpt>
      <trkpt lat="43.64876" lon="3.35745">
        <ele>139</ele>
        <time>2017-09-17T18:34:54Z</time>
      </trkpt>
      <trkpt lat="43.64943" lon="3.35677">
        <ele>138</ele>
        <time>2017-09-17T18:34:54Z</time>
      </trkpt>
      <trkpt lat="43.6496" lon="3.356">
        <ele>138</ele>
        <time>2017-09-17T18:34:54Z</time>
      </trkpt>
      <trkpt lat="43.64977" lon="3.3551">
        <ele>136</ele>
        <time>2017-09-17T18:34:54Z</time>
      </trkpt>
      <trkpt lat="43.64906" lon="3.35436">
        <ele>140</ele>
        <time>2017-09-17T18:34:54Z</time>
      </trkpt>
      <trkpt lat="43.64937" lon="3.35378">
        <ele>138</ele>
        <time>2017-09-17T18:34:54Z</time>
      </trkpt>
      <trkpt lat="43.64931" lon="3.35336">
        <ele>138</ele>
        <time>2017-09-17T18:34:54Z</time>
      </trkpt>
      <trkpt lat="43.64906" lon="3.35319">
        <ele>139</ele>
        <time>2017-09-17T18:34:54Z</time>
      </trkpt>
      <trkpt lat="43.64894" lon="3.35291">
        <ele>139</ele>
        <time>2017-09-17T18:34:54Z</time>
      </trkpt>
      <trkpt lat="43.64907" lon="3.35249">
        <ele>138</ele>
        <time>2017-09-17T18:34:54Z</time>
      </trkpt>
      <trkpt lat="43.64904" lon="3.35213">
        <ele>139</ele>
        <time>2017-09-17T18:34:54Z</time>
      </trkpt>
      <trkpt lat="43.64864" lon="3.35179">
        <ele>140</ele>
        <time>2017-09-17T18:34:54Z</time>
      </trkpt>
      <trkpt lat="43.64859" lon="3.3512">
        <ele>139</ele>
        <time>2017-09-17T18:34:54Z</time>
      </trkpt>
      <trkpt lat="43.64864" lon="3.35081">
        <ele>139</ele>
        <time>2017-09-17T18:34:54Z</time>
      </trkpt>
      <trkpt lat="43.64841" lon="3.3504">
        <ele>139</ele>
        <time>2017-09-17T18:34:54Z</time>
      </trkpt>
      <trkpt lat="43.64736" lon="3.35037">
        <ele>141</ele>
        <time>2017-09-17T18:34:54Z</time>
      </trkpt>
      <trkpt lat="43.64686" lon="3.34971">
        <ele>140</ele>
        <time>2017-09-17T18:34:54Z</time>
      </trkpt>
      <trkpt lat="43.6468" lon="3.35123">
        <ele>142</ele>
        <time>2017-09-17T18:34:54Z</time>
      </trkpt>
      <trkpt lat="43.64664" lon="3.35191">
        <ele>145</ele>
        <time>2017-09-17T18:34:54Z</time>
      </trkpt>
      <trkpt lat="43.64661" lon="3.35317">
        <ele>145</ele>
        <time>2017-09-17T18:34:54Z</time>
      </trkpt>
      <trkpt lat="43.64676" lon="3.35404">
        <ele>144</ele>
        <time>2017-09-17T18:34:54Z</time>
      </trkpt>
      <trkpt lat="43.64648" lon="3.35517">
        <ele>146</ele>
        <time>2017-09-17T18:34:54Z</time>
      </trkpt>
      <trkpt lat="43.64634" lon="3.35634">
        <ele>148</ele>
        <time>2017-09-17T18:34:54Z</time>
      </trkpt>
      <trkpt lat="43.64641" lon="3.35766">
        <ele>148</ele>
        <time>2017-09-17T18:34:54Z</time>
      </trkpt>
      <trkpt lat="43.64641" lon="3.358">
        <ele>148</ele>
        <time>2017-09-17T18:34:54Z</time>
      </trkpt>
      <trkpt lat="43.64619" lon="3.35863">
        <ele>147</ele>
        <time>2017-09-17T18:34:54Z</time>
      </trkpt>
      <trkpt lat="43.64592" lon="3.35952">
        <ele>144</ele>
        <time>2017-09-17T18:34:54Z</time>
      </trkpt>
      <trkpt lat="43.64564" lon="3.35952">
        <ele>146</ele>
        <time>2017-09-17T18:34:54Z</time>
      </trkpt>
      <trkpt lat="43.64521" lon="3.35937">
        <ele>148</ele>
        <time>2017-09-17T18:34:54Z</time>
      </trkpt>
      <trkpt lat="43.64489" lon="3.35905">
        <ele>152</ele>
        <time>2017-09-17T18:34:54Z</time>
      </trkpt>
      <trkpt lat="43.64445" lon="3.35844">
        <ele>153</ele>
        <time>2017-09-17T18:34:54Z</time>
      </trkpt>
      <trkpt lat="43.64381" lon="3.35838">
        <ele>154</ele>
        <time>2017-09-17T18:34:54Z</time>
      </trkpt>
      <trkpt lat="43.64346" lon="3.35793">
        <ele>155</ele>
        <time>2017-09-17T18:34:54Z</time>
      </trkpt>
      <trkpt lat="43.64272" lon="3.35758">
        <ele>160</ele>
        <time>2017-09-17T18:34:54Z</time>
      </trkpt>
      <trkpt lat="43.64232" lon="3.35727">
        <ele>166</ele>
        <time>2017-09-17T18:34:54Z</time>
      </trkpt>
      <trkpt lat="43.64164" lon="3.35674">
        <ele>171</ele>
        <time>2017-09-17T18:34:54Z</time>
      </trkpt>
      <trkpt lat="43.64128" lon="3.35642">
        <ele>173</ele>
        <time>2017-09-17T18:34:54Z</time>
      </trkpt>
      <trkpt lat="43.64066" lon="3.35653">
        <ele>177</ele>
        <time>2017-09-17T18:34:54Z</time>
      </trkpt>
      <trkpt lat="43.64009" lon="3.35744">
        <ele>180</ele>
        <time>2017-09-17T18:34:54Z</time>
      </trkpt>
      <trkpt lat="43.63946" lon="3.35787">
        <ele>182</ele>
        <time>2017-09-17T18:34:54Z</time>
      </trkpt>
      <trkpt lat="43.63862" lon="3.35795">
        <ele>189</ele>
        <time>2017-09-17T18:34:54Z</time>
      </trkpt>
      <trkpt lat="43.63811" lon="3.35785">
        <ele>197</ele>
        <time>2017-09-17T18:34:54Z</time>
      </trkpt>
      <trkpt lat="43.63797" lon="3.35808">
        <ele>197</ele>
        <time>2017-09-17T18:34:54Z</time>
      </trkpt>
      <trkpt lat="43.63777" lon="3.35879">
        <ele>198</ele>
        <time>2017-09-17T18:34:54Z</time>
      </trkpt>
      <trkpt lat="43.63746" lon="3.35908">
        <ele>202</ele>
        <time>2017-09-17T18:34:54Z</time>
      </trkpt>
      <trkpt lat="43.63689" lon="3.359">
        <ele>204</ele>
        <time>2017-09-17T18:34:54Z</time>
      </trkpt>
      <trkpt lat="43.63659" lon="3.35929">
        <ele>209</ele>
        <time>2017-09-17T18:34:54Z</time>
      </trkpt>
      <trkpt lat="43.63635" lon="3.36026">
        <ele>216</ele>
        <time>2017-09-17T18:34:54Z</time>
      </trkpt>
      <trkpt lat="43.63607" lon="3.36146">
        <ele>219</ele>
        <time>2017-09-17T18:34:54Z</time>
      </trkpt>
      <trkpt lat="43.63566" lon="3.36265">
        <ele>223</ele>
        <time>2017-09-17T18:34:54Z</time>
      </trkpt>
      <trkpt lat="43.6354" lon="3.36334">
        <ele>228</ele>
        <time>2017-09-17T18:34:54Z</time>
      </trkpt>
      <trkpt lat="43.63534" lon="3.36351">
        <ele>229</ele>
        <time>2017-09-17T18:34:54Z</time>
      </trkpt>
      <trkpt lat="43.6353" lon="3.36295">
        <ele>229</ele>
        <time>2017-09-17T18:34:54Z</time>
      </trkpt>
      <trkpt lat="43.63515" lon="3.36245">
        <ele>231</ele>
        <time>2017-09-17T18:34:54Z</time>
      </trkpt>
      <trkpt lat="43.63474" lon="3.36218">
        <ele>242</ele>
        <time>2017-09-17T18:34:54Z</time>
      </trkpt>
      <trkpt lat="43.63461" lon="3.36196">
        <ele>243</ele>
        <time>2017-09-17T18:34:54Z</time>
      </trkpt>
      <trkpt lat="43.63459" lon="3.36125">
        <ele>243</ele>
        <time>2017-09-17T18:34:54Z</time>
      </trkpt>
      <trkpt lat="43.63459" lon="3.36069">
        <ele>248</ele>
        <time>2017-09-17T18:34:54Z</time>
      </trkpt>
      <trkpt lat="43.63488" lon="3.36039">
        <ele>249</ele>
        <time>2017-09-17T18:34:54Z</time>
      </trkpt>
      <trkpt lat="43.63478" lon="3.36008">
        <ele>251</ele>
        <time>2017-09-17T18:34:54Z</time>
      </trkpt>
      <trkpt lat="43.63457" lon="3.35943">
        <ele>259</ele>
        <time>2017-09-17T18:34:54Z</time>
      </trkpt>
      <trkpt lat="43.63456" lon="3.35839">
        <ele>266</ele>
        <time>2017-09-17T18:34:54Z</time>
      </trkpt>
      <trkpt lat="43.63405" lon="3.35795">
        <ele>281</ele>
        <time>2017-09-17T18:34:54Z</time>
      </trkpt>
      <trkpt lat="43.63362" lon="3.35732">
        <ele>297</ele>
        <time>2017-09-17T18:34:54Z</time>
      </trkpt>
      <trkpt lat="43.63332" lon="3.35691">
        <ele>312</ele>
        <time>2017-09-17T18:34:54Z</time>
      </trkpt>
      <trkpt lat="43.63326" lon="3.35671">
        <ele>313</ele>
        <time>2017-09-17T18:34:54Z</time>
      </trkpt>
      <trkpt lat="43.63277" lon="3.35664">
        <ele>325</ele>
        <time>2017-09-17T18:34:54Z</time>
      </trkpt>
      <trkpt lat="43.63251" lon="3.35708">
        <ele>316</ele>
        <time>2017-09-17T18:34:54Z</time>
      </trkpt>
      <trkpt lat="43.63219" lon="3.35763">
        <ele>337</ele>
        <time>2017-09-17T18:34:54Z</time>
      </trkpt>
      <trkpt lat="43.63208" lon="3.35657">
        <ele>350</ele>
        <time>2017-09-17T18:34:54Z</time>
      </trkpt>
      <trkpt lat="43.63182" lon="3.35569">
        <ele>364</ele>
        <time>2017-09-17T18:34:54Z</time>
      </trkpt>
      <trkpt lat="43.63156" lon="3.35495">
        <ele>379</ele>
        <time>2017-09-17T18:34:54Z</time>
      </trkpt>
      <trkpt lat="43.63127" lon="3.35476">
        <ele>385</ele>
        <time>2017-09-17T18:34:54Z</time>
      </trkpt>
      <trkpt lat="43.63129" lon="3.35435">
        <ele>384</ele>
        <time>2017-09-17T18:34:54Z</time>
      </trkpt>
      <trkpt lat="43.63166" lon="3.35421">
        <ele>386</ele>
        <time>2017-09-17T18:34:54Z</time>
      </trkpt>
      <trkpt lat="43.63191" lon="3.35404">
        <ele>384</ele>
        <time>2017-09-17T18:34:54Z</time>
      </trkpt>
      <trkpt lat="43.63215" lon="3.3535">
        <ele>385</ele>
        <time>2017-09-17T18:34:54Z</time>
      </trkpt>
      <trkpt lat="43.63226" lon="3.35242">
        <ele>396</ele>
        <time>2017-09-17T18:34:54Z</time>
      </trkpt>
      <trkpt lat="43.63237" lon="3.35133">
        <ele>408</ele>
        <time>2017-09-17T18:34:54Z</time>
      </trkpt>
      <trkpt lat="43.63251" lon="3.35049">
        <ele>418</ele>
        <time>2017-09-17T18:34:54Z</time>
      </trkpt>
      <trkpt lat="43.63263" lon="3.34963">
        <ele>429</ele>
        <time>2017-09-17T18:34:54Z</time>
      </trkpt>
      <trkpt lat="43.63284" lon="3.3486">
        <ele>438</ele>
        <time>2017-09-17T18:34:54Z</time>
      </trkpt>
      <trkpt lat="43.63299" lon="3.3478">
        <ele>444</ele>
        <time>2017-09-17T18:34:54Z</time>
      </trkpt>
      <trkpt lat="43.63336" lon="3.34706">
        <ele>449</ele>
        <time>2017-09-17T18:34:54Z</time>
      </trkpt>
      <trkpt lat="43.63344" lon="3.34664">
        <ele>460</ele>
        <time>2017-09-17T18:34:54Z</time>
      </trkpt>
      <trkpt lat="43.63344" lon="3.34592">
        <ele>464</ele>
        <time>2017-09-17T18:34:54Z</time>
      </trkpt>
      <trkpt lat="43.63337" lon="3.34474">
        <ele>484</ele>
        <time>2017-09-17T18:34:54Z</time>
      </trkpt>
      <trkpt lat="43.63361" lon="3.34409">
        <ele>486</ele>
        <time>2017-09-17T18:34:54Z</time>
      </trkpt>
      <trkpt lat="43.63388" lon="3.34342">
        <ele>481</ele>
        <time>2017-09-17T18:34:54Z</time>
      </trkpt>
      <trkpt lat="43.63424" lon="3.34294">
        <ele>467</ele>
        <time>2017-09-17T18:34:54Z</time>
      </trkpt>
      <trkpt lat="43.63435" lon="3.34276">
        <ele>464</ele>
        <time>2017-09-17T18:34:54Z</time>
      </trkpt>
      <trkpt lat="43.63431" lon="3.34253">
        <ele>458</ele>
        <time>2017-09-17T18:34:54Z</time>
      </trkpt>
      <trkpt lat="43.63404" lon="3.342">
        <ele>441</ele>
        <time>2017-09-17T18:34:54Z</time>
      </trkpt>
      <trkpt lat="43.63376" lon="3.34128">
        <ele>425</ele>
        <time>2017-09-17T18:34:54Z</time>
      </trkpt>
      <trkpt lat="43.6335" lon="3.34069">
        <ele>414</ele>
        <time>2017-09-17T18:34:54Z</time>
      </trkpt>
      <trkpt lat="43.63336" lon="3.34016">
        <ele>408</ele>
        <time>2017-09-17T18:34:54Z</time>
      </trkpt>
      <trkpt lat="43.63284" lon="3.34009">
        <ele>404</ele>
        <time>2017-09-17T18:34:54Z</time>
      </trkpt>
      <trkpt lat="43.63251" lon="3.33991">
        <ele>396</ele>
        <time>2017-09-17T18:34:54Z</time>
      </trkpt>
      <trkpt lat="43.63204" lon="3.33898">
        <ele>377</ele>
        <time>2017-09-17T18:34:54Z</time>
      </trkpt>
      <trkpt lat="43.63132" lon="3.338">
        <ele>356</ele>
        <time>2017-09-17T18:34:54Z</time>
      </trkpt>
      <trkpt lat="43.6315" lon="3.33759">
        <ele>354</ele>
        <time>2017-09-17T18:34:54Z</time>
      </trkpt>
      <trkpt lat="43.63101" lon="3.33678">
        <ele>339</ele>
        <time>2017-09-17T18:34:54Z</time>
      </trkpt>
      <trkpt lat="43.63059" lon="3.33612">
        <ele>327</ele>
        <time>2017-09-17T18:34:54Z</time>
      </trkpt>
      <trkpt lat="43.63054" lon="3.3355">
        <ele>322</ele>
        <time>2017-09-17T18:34:54Z</time>
      </trkpt>
      <trkpt lat="43.63084" lon="3.33501">
        <ele>314</ele>
        <time>2017-09-17T18:34:54Z</time>
      </trkpt>
      <trkpt lat="43.63139" lon="3.33442">
        <ele>311</ele>
        <time>2017-09-17T18:34:54Z</time>
      </trkpt>
      <trkpt lat="43.63172" lon="3.33342">
        <ele>293</ele>
        <time>2017-09-17T18:34:54Z</time>
      </trkpt>
      <trkpt lat="43.63185" lon="3.33328">
        <ele>287</ele>
        <time>2017-09-17T18:34:54Z</time>
      </trkpt>
      <trkpt lat="43.63228" lon="3.3329">
        <ele>289</ele>
        <time>2017-09-17T18:34:54Z</time>
      </trkpt>
      <trkpt lat="43.63256" lon="3.3324">
        <ele>286</ele>
        <time>2017-09-17T18:34:54Z</time>
      </trkpt>
      <trkpt lat="43.6324" lon="3.33134">
        <ele>257</ele>
        <time>2017-09-17T18:34:54Z</time>
      </trkpt>
      <trkpt lat="43.63254" lon="3.33085">
        <ele>251</ele>
        <time>2017-09-17T18:34:54Z</time>
      </trkpt>
      <trkpt lat="43.63289" lon="3.33019">
        <ele>242</ele>
        <time>2017-09-17T18:34:54Z</time>
      </trkpt>
      <trkpt lat="43.63318" lon="3.32959">
        <ele>226</ele>
        <time>2017-09-17T18:34:54Z</time>
      </trkpt>
      <trkpt lat="43.63342" lon="3.32891">
        <ele>218</ele>
        <time>2017-09-17T18:34:54Z</time>
      </trkpt>
      <trkpt lat="43.63314" lon="3.32852">
        <ele>209</ele>
        <time>2017-09-17T18:34:54Z</time>
      </trkpt>
      <trkpt lat="43.63296" lon="3.32748">
        <ele>194</ele>
        <time>2017-09-17T18:34:54Z</time>
      </trkpt>
      <trkpt lat="43.63309" lon="3.32685">
        <ele>192</ele>
        <time>2017-09-17T18:34:54Z</time>
      </trkpt>
      <trkpt lat="43.63323" lon="3.32628">
        <ele>188</ele>
        <time>2017-09-17T18:34:54Z</time>
      </trkpt>
      <trkpt lat="43.63352" lon="3.32576">
        <ele>184</ele>
        <time>2017-09-17T18:34:54Z</time>
      </trkpt>
      <trkpt lat="43.63386" lon="3.32513">
        <ele>181</ele>
        <time>2017-09-17T18:34:54Z</time>
      </trkpt>
      <trkpt lat="43.63407" lon="3.32464">
        <ele>176</ele>
        <time>2017-09-17T18:34:54Z</time>
      </trkpt>
      <trkpt lat="43.63408" lon="3.32382">
        <ele>170</ele>
        <time>2017-09-17T18:34:54Z</time>
      </trkpt>
      <trkpt lat="43.63462" lon="3.32394">
        <ele>169</ele>
        <time>2017-09-17T18:34:54Z</time>
      </trkpt>
      <trkpt lat="43.63495" lon="3.32356">
        <ele>166</ele>
        <time>2017-09-17T18:34:54Z</time>
      </trkpt>
      <trkpt lat="43.63517" lon="3.32314">
        <ele>161</ele>
        <time>2017-09-17T18:34:54Z</time>
      </trkpt>
      <trkpt lat="43.63525" lon="3.3227">
        <ele>159</ele>
        <time>2017-09-17T18:34:54Z</time>
      </trkpt>
      <trkpt lat="43.63536" lon="3.32197">
        <ele>155</ele>
        <time>2017-09-17T18:34:54Z</time>
      </trkpt>
      <trkpt lat="43.63565" lon="3.32131">
        <ele>151</ele>
        <time>2017-09-17T18:34:54Z</time>
      </trkpt>
      <trkpt lat="43.63582" lon="3.32124">
        <ele>151</ele>
        <time>2017-09-17T18:34:54Z</time>
      </trkpt>
      <trkpt lat="43.63644" lon="3.32148">
        <ele>149</ele>
        <time>2017-09-17T18:34:54Z</time>
      </trkpt>
      <trkpt lat="43.63694" lon="3.32166">
        <ele>147</ele>
        <time>2017-09-17T18:34:54Z</time>
      </trkpt>
      <trkpt lat="43.63758" lon="3.32216">
        <ele>146</ele>
        <time>2017-09-17T18:34:54Z</time>
      </trkpt>
      <trkpt lat="43.63811" lon="3.32245">
        <ele>145</ele>
        <time>2017-09-17T18:34:54Z</time>
      </trkpt>
      <trkpt lat="43.63869" lon="3.32297">
        <ele>145</ele>
        <time>2017-09-17T18:34:54Z</time>
      </trkpt>
      <trkpt lat="43.6392" lon="3.32343">
        <ele>144</ele>
        <time>2017-09-17T18:34:54Z</time>
      </trkpt>
      <trkpt lat="43.63944" lon="3.32356">
        <ele>145</ele>
        <time>2017-09-17T18:34:54Z</time>
      </trkpt>
      <trkpt lat="43.63997" lon="3.32349">
        <ele>144</ele>
        <time>2017-09-17T18:34:54Z</time>
      </trkpt>
      <trkpt lat="43.64018" lon="3.32345">
        <ele>144</ele>
        <time>2017-09-17T18:34:54Z</time>
      </trkpt>
      <trkpt lat="43.64043" lon="3.32381">
        <ele>145</ele>
        <time>2017-09-17T18:34:54Z</time>
      </trkpt>
      <trkpt lat="43.64074" lon="3.32415">
        <ele>145</ele>
        <time>2017-09-17T18:34:54Z</time>
      </trkpt>
      <trkpt lat="43.64137" lon="3.32449">
        <ele>143</ele>
        <time>2017-09-17T18:34:54Z</time>
      </trkpt>
      <trkpt lat="43.64222" lon="3.32491">
        <ele>142</ele>
        <time>2017-09-17T18:34:54Z</time>
      </trkpt>
      <trkpt lat="43.64251" lon="3.32404">
        <ele>144</ele>
        <time>2017-09-17T18:34:54Z</time>
      </trkpt>
      <trkpt lat="43.64291" lon="3.32335">
        <ele>144</ele>
        <time>2017-09-17T18:34:54Z</time>
      </trkpt>
      <trkpt lat="43.64311" lon="3.32286">
        <ele>147</ele>
        <time>2017-09-17T18:34:54Z</time>
      </trkpt>
      <trkpt lat="43.64317" lon="3.32255">
        <ele>147</ele>
        <time>2017-09-17T18:34:54Z</time>
      </trkpt>
      <trkpt lat="43.64317" lon="3.32161">
        <ele>150</ele>
        <time>2017-09-17T18:34:54Z</time>
      </trkpt>
      <trkpt lat="43.64309" lon="3.32077">
        <ele>150</ele>
        <time>2017-09-17T18:34:54Z</time>
      </trkpt>
      <trkpt lat="43.6433" lon="3.3202">
        <ele>150</ele>
        <time>2017-09-17T18:34:54Z</time>
      </trkpt>
      <trkpt lat="43.643" lon="3.3196">
        <ele>152</ele>
        <time>2017-09-17T18:34:54Z</time>
      </trkpt>
      <trkpt lat="43.64329" lon="3.31901">
        <ele>152</ele>
        <time>2017-09-17T18:34:54Z</time>
      </trkpt>
      <trkpt lat="43.64361" lon="3.31829">
        <ele>152</ele>
        <time>2017-09-17T18:34:54Z</time>
      </trkpt>
      <trkpt lat="43.64376" lon="3.31775">
        <ele>153</ele>
        <time>2017-09-17T18:34:54Z</time>
      </trkpt>
      <trkpt lat="43.64379" lon="3.31686">
        <ele>155</ele>
        <time>2017-09-17T18:34:54Z</time>
      </trkpt>
      <trkpt lat="43.64378" lon="3.31624">
        <ele>157</ele>
        <time>2017-09-17T18:34:54Z</time>
      </trkpt>
      <trkpt lat="43.64387" lon="3.31553">
        <ele>159</ele>
        <time>2017-09-17T18:34:54Z</time>
      </trkpt>
      <trkpt lat="43.644" lon="3.31502">
        <ele>157</ele>
        <time>2017-09-17T18:34:54Z</time>
      </trkpt>
      <trkpt lat="43.64395" lon="3.31404">
        <ele>158</ele>
        <time>2017-09-17T18:34:54Z</time>
      </trkpt>
      <trkpt lat="43.64392" lon="3.31301">
        <ele>160</ele>
        <time>2017-09-17T18:34:54Z</time>
      </trkpt>
      <trkpt lat="43.64384" lon="3.31218">
        <ele>160</ele>
        <time>2017-09-17T18:34:54Z</time>
      </trkpt>
      <trkpt lat="43.64372" lon="3.31166">
        <ele>160</ele>
        <time>2017-09-17T18:34:54Z</time>
      </trkpt>
      <trkpt lat="43.64372" lon="3.31067">
        <ele>160</ele>
        <time>2017-09-17T18:34:54Z</time>
      </trkpt>
      <trkpt lat="43.64361" lon="3.31023">
        <ele>160</ele>
        <time>2017-09-17T18:34:54Z</time>
      </trkpt>
      <trkpt lat="43.64354" lon="3.30955">
        <ele>160</ele>
        <time>2017-09-17T18:34:54Z</time>
      </trkpt>
      <trkpt lat="43.6435" lon="3.30901">
        <ele>161</ele>
        <time>2017-09-17T18:34:54Z</time>
      </trkpt>
      <trkpt lat="43.64357" lon="3.30859">
        <ele>162</ele>
        <time>2017-09-17T18:34:54Z</time>
      </trkpt>
      <trkpt lat="43.64397" lon="3.30866">
        <ele>161.1</ele>
      </trkpt>
      <trkpt lat="43.64416" lon="3.30856">
        <ele>161</ele>
      </trkpt>
      <trkpt lat="43.64435" lon="3.3086">
        <ele>160</ele>
      </trkpt>
      <trkpt lat="43.64449" lon="3.30852">
        <ele>160</ele>
      </trkpt>
      <trkpt lat="43.64473" lon="3.30843">
        <ele>159.9</ele>
      </trkpt>
      <trkpt lat="43.64496" lon="3.30843">
        <ele>159.9</ele>
      </trkpt>
      <trkpt lat="43.64522" lon="3.30852">
        <ele>159.9</ele>
      </trkpt>
      <trkpt lat="43.64538" lon="3.30848">
        <ele>159.9</ele>
      </trkpt>
      <trkpt lat="43.64555" lon="3.30841">
        <ele>160.1</ele>
      </trkpt>
      <trkpt lat="43.6458" lon="3.30835">
        <ele>160.8</ele>
      </trkpt>
      <trkpt lat="43.64594" lon="3.30833">
        <ele>161.4</ele>
      </trkpt>
      <trkpt lat="43.64613" lon="3.30811">
        <ele>163</ele>
      </trkpt>
      <trkpt lat="43.64629" lon="3.30795">
        <ele>163.5</ele>
      </trkpt>
      <trkpt lat="43.64649" lon="3.30775">
        <ele>164</ele>
      </trkpt>
      <trkpt lat="43.64671" lon="3.30759">
        <ele>164.9</ele>
      </trkpt>
      <trkpt lat="43.64687" lon="3.30753">
        <ele>164.9</ele>
      </trkpt>
      <trkpt lat="43.64703" lon="3.30741">
        <ele>165.8</ele>
      </trkpt>
      <trkpt lat="43.64725" lon="3.30739">
        <ele>165.8</ele>
      </trkpt>
      <trkpt lat="43.64742" lon="3.30725">
        <ele>166</ele>
      </trkpt>
      <trkpt lat="43.64758" lon="3.30731">
        <ele>166.7</ele>
      </trkpt>
      <trkpt lat="43.64771" lon="3.30715">
        <ele>167.6</ele>
      </trkpt>
      <trkpt lat="43.64787" lon="3.30703">
        <ele>168</ele>
      </trkpt>
      <trkpt lat="43.64803" lon="3.30685">
        <ele>168.5</ele>
      </trkpt>
      <trkpt lat="43.6482" lon="3.30661">
        <ele>169.9</ele>
      </trkpt>
      <trkpt lat="43.64835" lon="3.30641">
        <ele>170.8</ele>
      </trkpt>
      <trkpt lat="43.64849" lon="3.30627">
        <ele>171</ele>
      </trkpt>
      <trkpt lat="43.64867" lon="3.30609">
        <ele>171.3</ele>
      </trkpt>
      <trkpt lat="43.64877" lon="3.30597">
        <ele>171.5</ele>
      </trkpt>
      <trkpt lat="43.64893" lon="3.30585">
        <ele>171.9</ele>
      </trkpt>
      <trkpt lat="43.64911" lon="3.30565">
        <ele>172.8</ele>
      </trkpt>
      <trkpt lat="43.64935" lon="3.30553">
        <ele>174.4</ele>
      </trkpt>
      <trkpt lat="43.64953" lon="3.30537">
        <ele>174.7</ele>
      </trkpt>
      <trkpt lat="43.64977" lon="3.30545">
        <ele>174.9</ele>
      </trkpt>
      <trkpt lat="43.64998" lon="3.30543">
        <ele>175</ele>
      </trkpt>
      <trkpt lat="43.6502" lon="3.30541">
        <ele>176.6</ele>
      </trkpt>
      <trkpt lat="43.6504" lon="3.30539">
        <ele>177</ele>
      </trkpt>
      <trkpt lat="43.65062" lon="3.30529">
        <ele>177.5</ele>
      </trkpt>
      <trkpt lat="43.65084" lon="3.30523">
        <ele>180.2</ele>
      </trkpt>
      <trkpt lat="43.65101" lon="3.30529">
        <ele>180.7</ele>
      </trkpt>
      <trkpt lat="43.65123" lon="3.30533">
        <ele>181.4</ele>
      </trkpt>
      <trkpt lat="43.65132" lon="3.30551">
        <ele>181.8</ele>
      </trkpt>
      <trkpt lat="43.6514" lon="3.30581">
        <ele>182.8</ele>
      </trkpt>
      <trkpt lat="43.65153" lon="3.30577">
        <ele>183.9</ele>
      </trkpt>
      <trkpt lat="43.65179" lon="3.30561">
        <ele>184.1</ele>
      </trkpt>
      <trkpt lat="43.65197" lon="3.30553">
        <ele>183.5</ele>
      </trkpt>
      <trkpt lat="43.6522" lon="3.30543">
        <ele>183.1</ele>
      </trkpt>
      <trkpt lat="43.6524" lon="3.30519">
        <ele>183</ele>
      </trkpt>
      <trkpt lat="43.65258" lon="3.30495">
        <ele>183.5</ele>
      </trkpt>
      <trkpt lat="43.65281" lon="3.30475">
        <ele>184.4</ele>
      </trkpt>
      <trkpt lat="43.65304" lon="3.30449">
        <ele>185</ele>
      </trkpt>
      <trkpt lat="43.65332" lon="3.30415">
        <ele>186.9</ele>
      </trkpt>
      <trkpt lat="43.65353" lon="3.30391">
        <ele>187.6</ele>
      </trkpt>
      <trkpt lat="43.65377" lon="3.30376">
        <ele>188</ele>
        <time>2017-09-17T18:34:54Z</time>
      </trkpt>
      <trkpt lat="43.65402" lon="3.30344">
        <ele>190</ele>
        <time>2017-09-17T18:34:54Z</time>
      </trkpt>
      <trkpt lat="43.65426" lon="3.30319">
        <ele>194</ele>
        <time>2017-09-17T18:34:54Z</time>
      </trkpt>
      <trkpt lat="43.65441" lon="3.30297">
        <ele>196</ele>
        <time>2017-09-17T18:34:54Z</time>
      </trkpt>
      <trkpt lat="43.65469" lon="3.30291">
        <ele>197</ele>
        <time>2017-09-17T18:34:54Z</time>
      </trkpt>
      <trkpt lat="43.65508" lon="3.30236">
        <ele>207</ele>
        <time>2017-09-17T18:34:54Z</time>
      </trkpt>
      <trkpt lat="43.6555" lon="3.30265">
        <ele>205</ele>
        <time>2017-09-17T18:34:54Z</time>
      </trkpt>
      <trkpt lat="43.65592" lon="3.30286">
        <ele>215</ele>
        <time>2017-09-17T18:34:54Z</time>
      </trkpt>
      <trkpt lat="43.65614" lon="3.30306">
        <ele>215</ele>
        <time>2017-09-17T18:34:54Z</time>
      </trkpt>
      <trkpt lat="43.65633" lon="3.30337">
        <ele>209</ele>
        <time>2017-09-17T18:34:54Z</time>
      </trkpt>
      <trkpt lat="43.6565" lon="3.30373">
        <ele>208.5</ele>
      </trkpt>
      <trkpt lat="43.65681" lon="3.30389">
        <ele>219.1</ele>
      </trkpt>
      <trkpt lat="43.65704" lon="3.30419">
        <ele>212.6</ele>
      </trkpt>
      <trkpt lat="43.65743" lon="3.30427">
        <ele>218.8</ele>
      </trkpt>
      <trkpt lat="43.65772" lon="3.30417">
        <ele>223.9</ele>
      </trkpt>
      <trkpt lat="43.6581" lon="3.30431">
        <ele>227.3</ele>
      </trkpt>
      <trkpt lat="43.65848" lon="3.30445">
        <ele>232</ele>
        <time>2017-09-17T18:34:54Z</time>
      </trkpt>
      <trkpt lat="43.65869" lon="3.30441">
        <ele>232</ele>
        <time>2017-09-17T18:34:54Z</time>
      </trkpt>
      <trkpt lat="43.65851" lon="3.3042">
        <ele>235</ele>
        <time>2017-09-17T18:34:54Z</time>
      </trkpt>
      <trkpt lat="43.65819" lon="3.30396">
        <ele>240</ele>
        <time>2017-09-17T18:34:54Z</time>
      </trkpt>
      <trkpt lat="43.65786" lon="3.30368">
        <ele>241</ele>
        <time>2017-09-17T18:34:54Z</time>
      </trkpt>
      <trkpt lat="43.65764" lon="3.30321">
        <ele>251</ele>
        <time>2017-09-17T18:34:54Z</time>
      </trkpt>
      <trkpt lat="43.65743" lon="3.30281">
        <ele>245</ele>
        <time>2017-09-17T18:34:54Z</time>
      </trkpt>
      <trkpt lat="43.65716" lon="3.30241">
        <ele>253</ele>
        <time>2017-09-17T18:34:54Z</time>
      </trkpt>
      <trkpt lat="43.65699" lon="3.30196">
        <ele>253</ele>
        <time>2017-09-17T18:34:54Z</time>
      </trkpt>
      <trkpt lat="43.65703" lon="3.30142">
        <ele>258</ele>
        <time>2017-09-17T18:34:54Z</time>
      </trkpt>
      <trkpt lat="43.65718" lon="3.3008">
        <ele>259</ele>
        <time>2017-09-17T18:34:54Z</time>
      </trkpt>
      <trkpt lat="43.65731" lon="3.30025">
        <ele>259</ele>
        <time>2017-09-17T18:34:54Z</time>
      </trkpt>
      <trkpt lat="43.65747" lon="3.29971">
        <ele>257</ele>
        <time>2017-09-17T18:34:54Z</time>
      </trkpt>
      <trkpt lat="43.65769" lon="3.29913">
        <ele>267</ele>
        <time>2017-09-17T18:34:54Z</time>
      </trkpt>
      <trkpt lat="43.65795" lon="3.29853">
        <ele>270</ele>
        <time>2017-09-17T18:34:54Z</time>
      </trkpt>
      <trkpt lat="43.65824" lon="3.29798">
        <ele>266</ele>
        <time>2017-09-17T18:34:54Z</time>
      </trkpt>
      <trkpt lat="43.65849" lon="3.29753">
        <ele>280</ele>
        <time>2017-09-17T18:34:54Z</time>
      </trkpt>
      <trkpt lat="43.65873" lon="3.29718">
        <ele>277</ele>
        <time>2017-09-17T18:34:54Z</time>
      </trkpt>
      <trkpt lat="43.65897" lon="3.29676">
        <ele>278</ele>
        <time>2017-09-17T18:34:54Z</time>
      </trkpt>
      <trkpt lat="43.6594" lon="3.29648">
        <ele>287</ele>
        <time>2017-09-17T18:34:54Z</time>
      </trkpt>
      <trkpt lat="43.65976" lon="3.2959">
        <ele>289</ele>
        <time>2017-09-17T18:34:54Z</time>
      </trkpt>
      <trkpt lat="43.66009" lon="3.29555">
        <ele>296</ele>
        <time>2017-09-17T18:34:54Z</time>
      </trkpt>
      <trkpt lat="43.66031" lon="3.29513">
        <ele>295</ele>
        <time>2017-09-17T18:34:54Z</time>
      </trkpt>
      <trkpt lat="43.66053" lon="3.29462">
        <ele>286</ele>
        <time>2017-09-17T18:34:54Z</time>
      </trkpt>
      <trkpt lat="43.66085" lon="3.29434">
        <ele>300</ele>
        <time>2017-09-17T18:34:54Z</time>
      </trkpt>
      <trkpt lat="43.66113" lon="3.29397">
        <ele>296</ele>
        <time>2017-09-17T18:34:54Z</time>
      </trkpt>
      <trkpt lat="43.66148" lon="3.29384">
        <ele>301</ele>
        <time>2017-09-17T18:34:54Z</time>
      </trkpt>
      <trkpt lat="43.66163" lon="3.29379">
        <ele>302</ele>
        <time>2017-09-17T18:34:54Z</time>
      </trkpt>
      <trkpt lat="43.66183" lon="3.29386">
        <ele>321</ele>
        <time>2017-09-17T18:34:54Z</time>
      </trkpt>
      <trkpt lat="43.66193" lon="3.29378">
        <ele>322</ele>
        <time>2017-09-17T18:34:54Z</time>
      </trkpt>
      <trkpt lat="43.66232" lon="3.29373">
        <ele>328</ele>
        <time>2017-09-17T18:34:54Z</time>
      </trkpt>
      <trkpt lat="43.66242" lon="3.29339">
        <ele>328</ele>
        <time>2017-09-17T18:34:54Z</time>
      </trkpt>
      <trkpt lat="43.66259" lon="3.29291">
        <ele>340</ele>
        <time>2017-09-17T18:34:54Z</time>
      </trkpt>
      <trkpt lat="43.66259" lon="3.29257">
        <ele>332</ele>
        <time>2017-09-17T18:34:54Z</time>
      </trkpt>
      <trkpt lat="43.66258" lon="3.29226">
        <ele>334</ele>
        <time>2017-09-17T18:34:54Z</time>
      </trkpt>
      <trkpt lat="43.66272" lon="3.29191">
        <ele>337</ele>
        <time>2017-09-17T18:34:54Z</time>
      </trkpt>
      <trkpt lat="43.66274" lon="3.29123">
        <ele>339</ele>
        <time>2017-09-17T18:34:54Z</time>
      </trkpt>
      <trkpt lat="43.66275" lon="3.29045">
        <ele>342</ele>
        <time>2017-09-17T18:34:54Z</time>
      </trkpt>
      <trkpt lat="43.66273" lon="3.29019">
        <ele>340</ele>
        <time>2017-09-17T18:34:54Z</time>
      </trkpt>
      <trkpt lat="43.66257" lon="3.28994">
        <ele>332</ele>
        <time>2017-09-17T18:34:54Z</time>
      </trkpt>
      <trkpt lat="43.66256" lon="3.28961">
        <ele>340</ele>
        <time>2017-09-17T18:34:54Z</time>
      </trkpt>
      <trkpt lat="43.66276" lon="3.28929">
        <ele>343</ele>
        <time>2017-09-17T18:34:54Z</time>
      </trkpt>
      <trkpt lat="43.66296" lon="3.28878">
        <ele>349</ele>
        <time>2017-09-17T18:34:54Z</time>
      </trkpt>
      <trkpt lat="43.66307" lon="3.28823">
        <ele>351</ele>
        <time>2017-09-17T18:34:54Z</time>
      </trkpt>
      <trkpt lat="43.66304" lon="3.28758">
        <ele>347</ele>
        <time>2017-09-17T18:34:54Z</time>
      </trkpt>
      <trkpt lat="43.66302" lon="3.28725">
        <ele>341</ele>
        <time>2017-09-17T18:34:54Z</time>
      </trkpt>
      <trkpt lat="43.6631" lon="3.28693">
        <ele>341</ele>
        <time>2017-09-17T18:34:54Z</time>
      </trkpt>
      <trkpt lat="43.66332" lon="3.28661">
        <ele>348</ele>
        <time>2017-09-17T18:34:54Z</time>
      </trkpt>
      <trkpt lat="43.66334" lon="3.28625">
        <ele>361</ele>
        <time>2017-09-17T18:34:54Z</time>
      </trkpt>
      <trkpt lat="43.66344" lon="3.28609">
        <ele>360</ele>
      </trkpt>
      <trkpt lat="43.66352" lon="3.28591">
        <ele>358</ele>
        <time>2017-09-17T18:34:54Z</time>
      </trkpt>
      <trkpt lat="43.66372" lon="3.28569">
        <ele>356</ele>
        <time>2017-09-17T18:34:54Z</time>
      </trkpt>
      <trkpt lat="43.66393" lon="3.28529">
        <ele>357.2</ele>
      </trkpt>
      <trkpt lat="43.66415" lon="3.28491">
        <ele>355</ele>
      </trkpt>
      <trkpt lat="43.66429" lon="3.28469">
        <ele>364</ele>
      </trkpt>
      <trkpt lat="43.66445" lon="3.28447">
        <ele>362.8</ele>
      </trkpt>
      <trkpt lat="43.66467" lon="3.28427">
        <ele>364.5</ele>
      </trkpt>
      <trkpt lat="43.66511" lon="3.28393">
        <ele>362.9</ele>
      </trkpt>
      <trkpt lat="43.66555" lon="3.28383">
        <ele>364</ele>
        <time>2017-09-17T18:34:54Z</time>
      </trkpt>
      <trkpt lat="43.66591" lon="3.28396">
        <ele>373</ele>
        <time>2017-09-17T18:34:54Z</time>
      </trkpt>
      <trkpt lat="43.66622" lon="3.28418">
        <ele>388</ele>
        <time>2017-09-17T18:34:54Z</time>
      </trkpt>
      <trkpt lat="43.66652" lon="3.28412">
        <ele>375</ele>
        <time>2017-09-17T18:34:54Z</time>
      </trkpt>
      <trkpt lat="43.66683" lon="3.28431">
        <ele>386</ele>
        <time>2017-09-17T18:34:54Z</time>
      </trkpt>
      <trkpt lat="43.66708" lon="3.28432">
        <ele>387</ele>
        <time>2017-09-17T18:34:54Z</time>
      </trkpt>
      <trkpt lat="43.66741" lon="3.28428">
        <ele>387</ele>
        <time>2017-09-17T18:34:54Z</time>
      </trkpt>
      <trkpt lat="43.6676" lon="3.28428">
        <ele>383</ele>
        <time>2017-09-17T18:34:54Z</time>
      </trkpt>
      <trkpt lat="43.66783" lon="3.28419">
        <ele>381</ele>
        <time>2017-09-17T18:34:54Z</time>
      </trkpt>
      <trkpt lat="43.6681" lon="3.28297">
        <ele>379</ele>
        <time>2017-09-17T18:34:54Z</time>
      </trkpt>
      <trkpt lat="43.66836" lon="3.28233">
        <ele>380</ele>
        <time>2017-09-17T18:34:54Z</time>
      </trkpt>
      <trkpt lat="43.66831" lon="3.28202">
        <ele>373</ele>
        <time>2017-09-17T18:34:54Z</time>
      </trkpt>
      <trkpt lat="43.6685" lon="3.28159">
        <ele>375</ele>
        <time>2017-09-17T18:34:54Z</time>
      </trkpt>
      <trkpt lat="43.66884" lon="3.28106">
        <ele>372</ele>
        <time>2017-09-17T18:34:54Z</time>
      </trkpt>
      <trkpt lat="43.6692" lon="3.28054">
        <ele>369</ele>
        <time>2017-09-17T18:34:54Z</time>
      </trkpt>
      <trkpt lat="43.66943" lon="3.28005">
        <ele>366</ele>
        <time>2017-09-17T18:34:54Z</time>
      </trkpt>
      <trkpt lat="43.66968" lon="3.27999">
        <ele>360</ele>
        <time>2017-09-17T18:34:54Z</time>
      </trkpt>
      <trkpt lat="43.66997" lon="3.28043">
        <ele>365</ele>
        <time>2017-09-17T18:34:54Z</time>
      </trkpt>
      <trkpt lat="43.66999" lon="3.28102">
        <ele>368</ele>
        <time>2017-09-17T18:34:54Z</time>
      </trkpt>
      <trkpt lat="43.67086" lon="3.28079">
        <ele>365</ele>
        <time>2017-09-17T18:34:54Z</time>
      </trkpt>
      <trkpt lat="43.67161" lon="3.28046">
        <ele>369</ele>
        <time>2017-09-17T18:34:54Z</time>
      </trkpt>
      <trkpt lat="43.67224" lon="3.28063">
        <ele>371</ele>
        <time>2017-09-17T18:34:54Z</time>
      </trkpt>
      <trkpt lat="43.67241" lon="3.28134">
        <ele>373</ele>
        <time>2017-09-17T18:34:54Z</time>
      </trkpt>
      <trkpt lat="43.67247" lon="3.2819">
        <ele>373</ele>
        <time>2017-09-17T18:34:54Z</time>
      </trkpt>
      <trkpt lat="43.67231" lon="3.28267">
        <ele>373</ele>
        <time>2017-09-17T18:34:54Z</time>
      </trkpt>
      <trkpt lat="43.67179" lon="3.28282">
        <ele>374</ele>
        <time>2017-09-17T18:34:54Z</time>
      </trkpt>
      <trkpt lat="43.67151" lon="3.28355">
        <ele>376</ele>
        <time>2017-09-17T18:34:54Z</time>
      </trkpt>
      <trkpt lat="43.67135" lon="3.28464">
        <ele>382</ele>
        <time>2017-09-17T18:34:54Z</time>
      </trkpt>
      <trkpt lat="43.67046" lon="3.28617">
        <ele>383</ele>
        <time>2017-09-17T18:34:54Z</time>
      </trkpt>
      <trkpt lat="43.66978" lon="3.28647">
        <ele>374</ele>
        <time>2017-09-17T18:34:54Z</time>
      </trkpt>
      <trkpt lat="43.6691" lon="3.28707">
        <ele>370</ele>
        <time>2017-09-17T18:34:54Z</time>
      </trkpt>
      <trkpt lat="43.66887" lon="3.28822">
        <ele>373</ele>
        <time>2017-09-17T18:34:54Z</time>
      </trkpt>
      <trkpt lat="43.66844" lon="3.28846">
        <ele>366</ele>
        <time>2017-09-17T18:34:54Z</time>
      </trkpt>
      <trkpt lat="43.66828" lon="3.28889">
        <ele>365</ele>
        <time>2017-09-17T18:34:54Z</time>
      </trkpt>
      <trkpt lat="43.66832" lon="3.28945">
        <ele>364</ele>
        <time>2017-09-17T18:34:54Z</time>
      </trkpt>
      <trkpt lat="43.6682" lon="3.29003">
        <ele>363</ele>
        <time>2017-09-17T18:34:54Z</time>
      </trkpt>
      <trkpt lat="43.66837" lon="3.29075">
        <ele>367</ele>
        <time>2017-09-17T18:34:54Z</time>
      </trkpt>
      <trkpt lat="43.66872" lon="3.29153">
        <ele>372</ele>
        <time>2017-09-17T18:34:54Z</time>
      </trkpt>
      <trkpt lat="43.66908" lon="3.29231">
        <ele>376</ele>
        <time>2017-09-17T18:34:54Z</time>
      </trkpt>
      <trkpt lat="43.66927" lon="3.29336">
        <ele>383</ele>
        <time>2017-09-17T18:34:54Z</time>
      </trkpt>
      <trkpt lat="43.66922" lon="3.29448">
        <ele>384</ele>
        <time>2017-09-17T18:34:54Z</time>
      </trkpt>
      <trkpt lat="43.66971" lon="3.29534">
        <ele>380.5</ele>
      </trkpt>
      <trkpt lat="43.67008" lon="3.29582">
        <ele>377</ele>
        <time>2017-09-17T18:34:54Z</time>
      </trkpt>
      <trkpt lat="43.67055" lon="3.29586">
        <ele>373</ele>
        <time>2017-09-17T18:34:54Z</time>
      </trkpt>
      <trkpt lat="43.67096" lon="3.29559">
        <ele>371</ele>
        <time>2017-09-17T18:34:54Z</time>
      </trkpt>
      <trkpt lat="43.67166" lon="3.2956">
        <ele>366</ele>
        <time>2017-09-17T18:34:54Z</time>
      </trkpt>
      <trkpt lat="43.67187" lon="3.29619">
        <ele>360</ele>
        <time>2017-09-17T18:34:54Z</time>
      </trkpt>
      <trkpt lat="43.67198" lon="3.29684">
        <ele>363</ele>
        <time>2017-09-17T18:34:54Z</time>
      </trkpt>
      <trkpt lat="43.67202" lon="3.29722">
        <ele>364</ele>
        <time>2017-09-17T18:34:54Z</time>
      </trkpt>
      <trkpt lat="43.67245" lon="3.29741">
        <ele>366</ele>
        <time>2017-09-17T18:34:54Z</time>
      </trkpt>
      <trkpt lat="43.67227" lon="3.29794">
        <ele>366</ele>
      </trkpt>
      <trkpt lat="43.67233" lon="3.29854">
        <ele>365.9</ele>
      </trkpt>
      <trkpt lat="43.67222" lon="3.29933">
        <ele>366</ele>
      </trkpt>
      <trkpt lat="43.67182" lon="3.29975">
        <ele>365</ele>
        <time>2017-09-17T18:34:54Z</time>
      </trkpt>
      <trkpt lat="43.67134" lon="3.30052">
        <ele>360</ele>
        <time>2017-09-17T18:34:54Z</time>
      </trkpt>
      <trkpt lat="43.67103" lon="3.30085">
        <ele>360</ele>
      </trkpt>
      <trkpt lat="43.67065" lon="3.301">
        <ele>356</ele>
        <time>2017-09-17T18:34:54Z</time>
      </trkpt>
      <trkpt lat="43.67031" lon="3.30154">
        <ele>356</ele>
        <time>2017-09-17T18:34:54Z</time>
      </trkpt>
      <trkpt lat="43.66997" lon="3.30201">
        <ele>358</ele>
        <time>2017-09-17T18:34:54Z</time>
      </trkpt>
      <trkpt lat="43.66966" lon="3.30256">
        <ele>357</ele>
        <time>2017-09-17T18:34:54Z</time>
      </trkpt>
      <trkpt lat="43.66948" lon="3.30309">
        <ele>358</ele>
        <time>2017-09-17T18:34:54Z</time>
      </trkpt>
      <trkpt lat="43.66938" lon="3.3036">
        <ele>355</ele>
        <time>2017-09-17T18:34:54Z</time>
      </trkpt>
      <trkpt lat="43.6691" lon="3.30406">
        <ele>360</ele>
        <time>2017-09-17T18:34:54Z</time>
      </trkpt>
      <trkpt lat="43.66888" lon="3.30469">
        <ele>358</ele>
        <time>2017-09-17T18:34:54Z</time>
      </trkpt>
      <trkpt lat="43.66865" lon="3.30533">
        <ele>357</ele>
        <time>2017-09-17T18:34:54Z</time>
      </trkpt>
      <trkpt lat="43.66841" lon="3.30582">
        <ele>360</ele>
        <time>2017-09-17T18:34:54Z</time>
      </trkpt>
      <trkpt lat="43.66834" lon="3.30618">
        <ele>359</ele>
        <time>2017-09-17T18:34:54Z</time>
      </trkpt>
      <trkpt lat="43.66814" lon="3.30658">
        <ele>365</ele>
        <time>2017-09-17T18:34:54Z</time>
      </trkpt>
      <trkpt lat="43.66752" lon="3.30675">
        <ele>372</ele>
        <time>2017-09-17T18:34:54Z</time>
      </trkpt>
      <trkpt lat="43.66721" lon="3.30678">
        <ele>374</ele>
        <time>2017-09-17T18:34:54Z</time>
      </trkpt>
      <trkpt lat="43.66693" lon="3.30684">
        <ele>374</ele>
        <time>2017-09-17T18:34:54Z</time>
      </trkpt>
      <trkpt lat="43.66673" lon="3.30713">
        <ele>376</ele>
        <time>2017-09-17T18:34:54Z</time>
      </trkpt>
      <trkpt lat="43.66664" lon="3.30776">
        <ele>379</ele>
        <time>2017-09-17T18:34:54Z</time>
      </trkpt>
      <trkpt lat="43.66655" lon="3.30815">
        <ele>381</ele>
        <time>2017-09-17T18:34:54Z</time>
      </trkpt>
      <trkpt lat="43.66661" lon="3.30849">
        <ele>383</ele>
        <time>2017-09-17T18:34:54Z</time>
      </trkpt>
      <trkpt lat="43.6668" lon="3.30883">
        <ele>387</ele>
        <time>2017-09-17T18:34:54Z</time>
      </trkpt>
      <trkpt lat="43.66704" lon="3.30939">
        <ele>389</ele>
        <time>2017-09-17T18:34:54Z</time>
      </trkpt>
      <trkpt lat="43.66733" lon="3.30988">
        <ele>391</ele>
        <time>2017-09-17T18:34:54Z</time>
      </trkpt>
      <trkpt lat="43.66748" lon="3.31027">
        <ele>392</ele>
        <time>2017-09-17T18:34:54Z</time>
      </trkpt>
      <trkpt lat="43.66725" lon="3.3108">
        <ele>392</ele>
        <time>2017-09-17T18:34:54Z</time>
      </trkpt>
      <trkpt lat="43.66714" lon="3.31127">
        <ele>394</ele>
        <time>2017-09-17T18:34:54Z</time>
      </trkpt>
      <trkpt lat="43.66726" lon="3.31181">
        <ele>396</ele>
        <time>2017-09-17T18:34:54Z</time>
      </trkpt>
      <trkpt lat="43.66733" lon="3.31221">
        <ele>396</ele>
        <time>2017-09-17T18:34:54Z</time>
      </trkpt>
      <trkpt lat="43.66717" lon="3.31254">
        <ele>396</ele>
        <time>2017-09-17T18:34:54Z</time>
      </trkpt>
      <trkpt lat="43.66691" lon="3.31238">
        <ele>396</ele>
        <time>2017-09-17T18:34:54Z</time>
      </trkpt>
      <trkpt lat="43.66653" lon="3.31211">
        <ele>397</ele>
        <time>2017-09-17T18:34:54Z</time>
      </trkpt>
      <trkpt lat="43.6662" lon="3.31185">
        <ele>398</ele>
        <time>2017-09-17T18:34:54Z</time>
      </trkpt>
      <trkpt lat="43.666" lon="3.31156">
        <ele>398</ele>
        <time>2017-09-17T18:34:54Z</time>
      </trkpt>
      <trkpt lat="43.66576" lon="3.31127">
        <ele>398</ele>
        <time>2017-09-17T18:34:54Z</time>
      </trkpt>
      <trkpt lat="43.66531" lon="3.31144">
        <ele>399</ele>
        <time>2017-09-17T18:34:54Z</time>
      </trkpt>
      <trkpt lat="43.66493" lon="3.31163">
        <ele>400</ele>
        <time>2017-09-17T18:34:54Z</time>
      </trkpt>
      <trkpt lat="43.66461" lon="3.31201">
        <ele>395</ele>
        <time>2017-09-17T18:34:54Z</time>
      </trkpt>
      <trkpt lat="43.66451" lon="3.31227">
        <ele>394</ele>
        <time>2017-09-17T18:34:54Z</time>
      </trkpt>
      <trkpt lat="43.66453" lon="3.31257">
        <ele>387</ele>
        <time>2017-09-17T18:34:54Z</time>
      </trkpt>
      <trkpt lat="43.66478" lon="3.31291">
        <ele>386</ele>
        <time>2017-09-17T18:34:54Z</time>
      </trkpt>
      <trkpt lat="43.66522" lon="3.31328">
        <ele>388</ele>
        <time>2017-09-17T18:34:54Z</time>
      </trkpt>
      <trkpt lat="43.66553" lon="3.31368">
        <ele>383</ele>
        <time>2017-09-17T18:34:54Z</time>
      </trkpt>
      <trkpt lat="43.66577" lon="3.31415">
        <ele>383</ele>
        <time>2017-09-17T18:34:54Z</time>
      </trkpt>
      <trkpt lat="43.66611" lon="3.31478">
        <ele>383</ele>
        <time>2017-09-17T18:34:54Z</time>
      </trkpt>
      <trkpt lat="43.66627" lon="3.31507">
        <ele>381</ele>
        <time>2017-09-17T18:34:54Z</time>
      </trkpt>
      <trkpt lat="43.66663" lon="3.31558">
        <ele>382</ele>
        <time>2017-09-17T18:34:54Z</time>
      </trkpt>
      <trkpt lat="43.66691" lon="3.31555">
        <ele>387</ele>
        <time>2017-09-17T18:34:54Z</time>
      </trkpt>
      <trkpt lat="43.66723" lon="3.31591">
        <ele>385</ele>
        <time>2017-09-17T18:34:54Z</time>
      </trkpt>
      <trkpt lat="43.66771" lon="3.31623">
        <ele>386</ele>
        <time>2017-09-17T18:34:54Z</time>
      </trkpt>
      <trkpt lat="43.66818" lon="3.31649">
        <ele>385</ele>
        <time>2017-09-17T18:34:54Z</time>
      </trkpt>
      <trkpt lat="43.66856" lon="3.31672">
        <ele>382</ele>
        <time>2017-09-17T18:34:54Z</time>
      </trkpt>
      <trkpt lat="43.66868" lon="3.31679">
        <ele>381</ele>
        <time>2017-09-17T18:34:54Z</time>
      </trkpt>
      <trkpt lat="43.66892" lon="3.31718">
        <ele>380</ele>
        <time>2017-09-17T18:34:54Z</time>
      </trkpt>
      <trkpt lat="43.66948" lon="3.31739">
        <ele>379</ele>
        <time>2017-09-17T18:34:54Z</time>
      </trkpt>
      <trkpt lat="43.66973" lon="3.31778">
        <ele>375</ele>
        <time>2017-09-17T18:34:54Z</time>
      </trkpt>
      <trkpt lat="43.67004" lon="3.31796">
        <ele>376</ele>
        <time>2017-09-17T18:34:54Z</time>
      </trkpt>
      <trkpt lat="43.67006" lon="3.31819">
        <ele>375</ele>
        <time>2017-09-17T18:34:54Z</time>
      </trkpt>
      <trkpt lat="43.67026" lon="3.31872">
        <ele>372</ele>
        <time>2017-09-17T18:34:54Z</time>
      </trkpt>
      <trkpt lat="43.67033" lon="3.31935">
        <ele>370</ele>
        <time>2017-09-17T18:34:54Z</time>
      </trkpt>
      <trkpt lat="43.67026" lon="3.31991">
        <ele>370</ele>
        <time>2017-09-17T18:34:54Z</time>
      </trkpt>
      <trkpt lat="43.67018" lon="3.32051">
        <ele>371</ele>
        <time>2017-09-17T18:34:54Z</time>
      </trkpt>
      <trkpt lat="43.67001" lon="3.32074">
        <ele>371</ele>
        <time>2017-09-17T18:34:54Z</time>
      </trkpt>
      <trkpt lat="43.66973" lon="3.32099">
        <ele>367</ele>
        <time>2017-09-17T18:34:54Z</time>
      </trkpt>
      <trkpt lat="43.66956" lon="3.32159">
        <ele>366</ele>
        <time>2017-09-17T18:34:54Z</time>
      </trkpt>
      <trkpt lat="43.66923" lon="3.32164">
        <ele>365</ele>
        <time>2017-09-17T18:34:54Z</time>
      </trkpt>
      <trkpt lat="43.66886" lon="3.32195">
        <ele>361</ele>
        <time>2017-09-17T18:34:54Z</time>
      </trkpt>
      <trkpt lat="43.66859" lon="3.32194">
        <ele>359</ele>
        <time>2017-09-17T18:34:54Z</time>
      </trkpt>
      <trkpt lat="43.66844" lon="3.32225">
        <ele>359</ele>
        <time>2017-09-17T18:34:54Z</time>
      </trkpt>
      <trkpt lat="43.66811" lon="3.32261">
        <ele>352</ele>
        <time>2017-09-17T18:34:54Z</time>
      </trkpt>
      <trkpt lat="43.66777" lon="3.32269">
        <ele>347</ele>
        <time>2017-09-17T18:34:54Z</time>
      </trkpt>
      <trkpt lat="43.66751" lon="3.32276">
        <ele>345</ele>
        <time>2017-09-17T18:34:54Z</time>
      </trkpt>
      <trkpt lat="43.66739" lon="3.32276">
        <ele>333</ele>
        <time>2017-09-17T18:34:54Z</time>
      </trkpt>
      <trkpt lat="43.66748" lon="3.32237">
        <ele>328</ele>
        <time>2017-09-17T18:34:54Z</time>
      </trkpt>
      <trkpt lat="43.66743" lon="3.32217">
        <ele>321</ele>
        <time>2017-09-17T18:34:54Z</time>
      </trkpt>
      <trkpt lat="43.66732" lon="3.32212">
        <ele>319</ele>
        <time>2017-09-17T18:34:54Z</time>
      </trkpt>
      <trkpt lat="43.66721" lon="3.32229">
        <ele>319</ele>
        <time>2017-09-17T18:34:54Z</time>
      </trkpt>
      <trkpt lat="43.66718" lon="3.32202">
        <ele>316</ele>
        <time>2017-09-17T18:34:54Z</time>
      </trkpt>
      <trkpt lat="43.66708" lon="3.32167">
        <ele>311</ele>
        <time>2017-09-17T18:34:54Z</time>
      </trkpt>
      <trkpt lat="43.6671" lon="3.32119">
        <ele>300</ele>
        <time>2017-09-17T18:34:54Z</time>
      </trkpt>
      <trkpt lat="43.66694" lon="3.32117">
        <ele>297</ele>
        <time>2017-09-17T18:34:54Z</time>
      </trkpt>
      <trkpt lat="43.66672" lon="3.32146">
        <ele>294</ele>
        <time>2017-09-17T18:34:54Z</time>
      </trkpt>
      <trkpt lat="43.66667" lon="3.32166">
        <ele>287</ele>
        <time>2017-09-17T18:34:54Z</time>
      </trkpt>
      <trkpt lat="43.66663" lon="3.32178">
        <ele>287</ele>
        <time>2017-09-17T18:34:54Z</time>
      </trkpt>
      <trkpt lat="43.66642" lon="3.32178">
        <ele>285</ele>
        <time>2017-09-17T18:34:54Z</time>
      </trkpt>
      <trkpt lat="43.66614" lon="3.3217">
        <ele>280</ele>
        <time>2017-09-17T18:34:54Z</time>
      </trkpt>
      <trkpt lat="43.66572" lon="3.32184">
        <ele>265</ele>
        <time>2017-09-17T18:34:54Z</time>
      </trkpt>
      <trkpt lat="43.66517" lon="3.32211">
        <ele>262</ele>
        <time>2017-09-17T18:34:54Z</time>
      </trkpt>
      <trkpt lat="43.66476" lon="3.32225">
        <ele>251</ele>
        <time>2017-09-17T18:34:54Z</time>
      </trkpt>
      <trkpt lat="43.66457" lon="3.3223">
        <ele>249</ele>
        <time>2017-09-17T18:34:54Z</time>
      </trkpt>
      <trkpt lat="43.66439" lon="3.32235">
        <ele>248</ele>
        <time>2017-09-17T18:34:54Z</time>
      </trkpt>
      <trkpt lat="43.66434" lon="3.32219">
        <ele>247</ele>
        <time>2017-09-17T18:34:54Z</time>
      </trkpt>
      <trkpt lat="43.66431" lon="3.32208">
        <ele>246</ele>
        <time>2017-09-17T18:34:54Z</time>
      </trkpt>
      <trkpt lat="43.66418" lon="3.32185">
        <ele>242</ele>
        <time>2017-09-17T18:34:54Z</time>
      </trkpt>
      <trkpt lat="43.66388" lon="3.32206">
        <ele>238</ele>
        <time>2017-09-17T18:34:54Z</time>
      </trkpt>
      <trkpt lat="43.66357" lon="3.32209">
        <ele>236</ele>
        <time>2017-09-17T18:34:54Z</time>
      </trkpt>
      <trkpt lat="43.66362" lon="3.32195">
        <ele>235</ele>
        <time>2017-09-17T18:34:54Z</time>
      </trkpt>
      <trkpt lat="43.66358" lon="3.32187">
        <ele>234</ele>
        <time>2017-09-17T18:34:54Z</time>
      </trkpt>
      <trkpt lat="43.66325" lon="3.32188">
        <ele>228</ele>
        <time>2017-09-17T18:34:54Z</time>
      </trkpt>
      <trkpt lat="43.66281" lon="3.3219">
        <ele>226</ele>
        <time>2017-09-17T18:34:54Z</time>
      </trkpt>
      <trkpt lat="43.66253" lon="3.32194">
        <ele>224</ele>
        <time>2017-09-17T18:34:54Z</time>
      </trkpt>
      <trkpt lat="43.66232" lon="3.32194">
        <ele>218</ele>
        <time>2017-09-17T18:34:54Z</time>
      </trkpt>
      <trkpt lat="43.66189" lon="3.32223">
        <ele>218</ele>
        <time>2017-09-17T18:34:54Z</time>
      </trkpt>
      <trkpt lat="43.66151" lon="3.32255">
        <ele>221</ele>
        <time>2017-09-17T18:34:54Z</time>
      </trkpt>
      <trkpt lat="43.66093" lon="3.3226">
        <ele>214</ele>
        <time>2017-09-17T18:34:54Z</time>
      </trkpt>
      <trkpt lat="43.66026" lon="3.32279">
        <ele>210</ele>
        <time>2017-09-17T18:34:54Z</time>
      </trkpt>
      <trkpt lat="43.65997" lon="3.32295">
        <ele>204</ele>
        <time>2017-09-17T18:34:54Z</time>
      </trkpt>
      <trkpt lat="43.65974" lon="3.3227">
        <ele>201</ele>
        <time>2017-09-17T18:34:54Z</time>
      </trkpt>
      <trkpt lat="43.65947" lon="3.32257">
        <ele>197</ele>
        <time>2017-09-17T18:34:54Z</time>
      </trkpt>
      <trkpt lat="43.65911" lon="3.32267">
        <ele>189</ele>
        <time>2017-09-17T18:34:54Z</time>
      </trkpt>
      <trkpt lat="43.65888" lon="3.32241">
        <ele>183</ele>
        <time>2017-09-17T18:34:54Z</time>
      </trkpt>
      <trkpt lat="43.65861" lon="3.32234">
        <ele>181</ele>
        <time>2017-09-17T18:34:54Z</time>
      </trkpt>
      <trkpt lat="43.65821" lon="3.32221">
        <ele>175</ele>
        <time>2017-09-17T18:34:54Z</time>
      </trkpt>
      <trkpt lat="43.65796" lon="3.32211">
        <ele>173</ele>
        <time>2017-09-17T18:34:54Z</time>
      </trkpt>
      <trkpt lat="43.65778" lon="3.32194">
        <ele>172</ele>
        <time>2017-09-17T18:34:54Z</time>
      </trkpt>
      <trkpt lat="43.65778" lon="3.32174">
        <ele>171</ele>
        <time>2017-09-17T18:34:54Z</time>
      </trkpt>
      <trkpt lat="43.65762" lon="3.32152">
        <ele>169</ele>
        <time>2017-09-17T18:34:54Z</time>
      </trkpt>
      <trkpt lat="43.6575" lon="3.32138">
        <ele>169</ele>
        <time>2017-09-17T18:34:54Z</time>
      </trkpt>
      <trkpt lat="43.65752" lon="3.32116">
        <ele>170</ele>
        <time>2017-09-17T18:34:54Z</time>
      </trkpt>
      <trkpt lat="43.65763" lon="3.32084">
        <ele>169</ele>
        <time>2017-09-17T18:34:54Z</time>
      </trkpt>
      <trkpt lat="43.65754" lon="3.32062">
        <ele>171</ele>
        <time>2017-09-17T18:34:54Z</time>
      </trkpt>
      <trkpt lat="43.65741" lon="3.32046">
        <ele>168</ele>
        <time>2017-09-17T18:34:54Z</time>
      </trkpt>
      <trkpt lat="43.65725" lon="3.32001">
        <ele>169</ele>
        <time>2017-09-17T18:34:54Z</time>
      </trkpt>
      <trkpt lat="43.65696" lon="3.31911">
        <ele>170</ele>
        <time>2017-09-17T18:34:54Z</time>
      </trkpt>
      <trkpt lat="43.65688" lon="3.31844">
        <ele>170</ele>
        <time>2017-09-17T18:34:54Z</time>
      </trkpt>
      <trkpt lat="43.65683" lon="3.31826">
        <ele>171</ele>
        <time>2017-09-17T18:34:54Z</time>
      </trkpt>
      <trkpt lat="43.65655" lon="3.31816">
        <ele>168</ele>
        <time>2017-09-17T18:34:54Z</time>
      </trkpt>
      <trkpt lat="43.65639" lon="3.31797">
        <ele>167</ele>
        <time>2017-09-17T18:34:54Z</time>
      </trkpt>
      <trkpt lat="43.65612" lon="3.31778">
        <ele>167</ele>
        <time>2017-09-17T18:34:54Z</time>
      </trkpt>
      <trkpt lat="43.65558" lon="3.31769">
        <ele>161</ele>
        <time>2017-09-17T18:34:54Z</time>
      </trkpt>
      <trkpt lat="43.655" lon="3.31768">
        <ele>156</ele>
        <time>2017-09-17T18:34:54Z</time>
      </trkpt>
      <trkpt lat="43.65438" lon="3.31766">
        <ele>155</ele>
        <time>2017-09-17T18:34:54Z</time>
      </trkpt>
      <trkpt lat="43.65412" lon="3.31801">
        <ele>153</ele>
        <time>2017-09-17T18:34:54Z</time>
      </trkpt>
      <trkpt lat="43.65386" lon="3.31833">
        <ele>152</ele>
        <time>2017-09-17T18:34:54Z</time>
      </trkpt>
      <trkpt lat="43.65406" lon="3.31855">
        <ele>151</ele>
        <time>2017-09-17T18:34:54Z</time>
      </trkpt>
      <trkpt lat="43.65391" lon="3.31909">
        <ele>151</ele>
        <time>2017-09-17T18:34:54Z</time>
      </trkpt>
      <trkpt lat="43.65416" lon="3.31931">
        <ele>151</ele>
        <time>2017-09-17T18:34:54Z</time>
      </trkpt>
      <trkpt lat="43.65424" lon="3.31971">
        <ele>152</ele>
        <time>2017-09-17T18:34:54Z</time>
      </trkpt>
      <trkpt lat="43.65424" lon="3.32013">
        <ele>152</ele>
        <time>2017-09-17T18:34:54Z</time>
      </trkpt>
      <trkpt lat="43.65417" lon="3.32059">
        <ele>151</ele>
        <time>2017-09-17T18:34:54Z</time>
      </trkpt>
      <trkpt lat="43.65401" lon="3.32101">
        <ele>149</ele>
        <time>2017-09-17T18:34:54Z</time>
      </trkpt>
      <trkpt lat="43.65377" lon="3.32139">
        <ele>149</ele>
        <time>2017-09-17T18:34:54Z</time>
      </trkpt>
      <trkpt lat="43.65374" lon="3.32209">
        <ele>148</ele>
        <time>2017-09-17T18:34:54Z</time>
      </trkpt>
      <trkpt lat="43.65367" lon="3.32291">
        <ele>147</ele>
        <time>2017-09-17T18:34:54Z</time>
      </trkpt>
      <trkpt lat="43.6536" lon="3.32352">
        <ele>147</ele>
        <time>2017-09-17T18:34:54Z</time>
      </trkpt>
      <trkpt lat="43.65346" lon="3.32395">
        <ele>147</ele>
        <time>2017-09-17T18:34:54Z</time>
      </trkpt>
      <trkpt lat="43.65331" lon="3.32429">
        <ele>145</ele>
        <time>2017-09-17T18:34:54Z</time>
      </trkpt>
      <trkpt lat="43.65323" lon="3.32503">
        <ele>144</ele>
        <time>2017-09-17T18:34:54Z</time>
      </trkpt>
      <trkpt lat="43.65302" lon="3.32594">
        <ele>140</ele>
        <time>2017-09-17T18:34:54Z</time>
      </trkpt>
      <trkpt lat="43.65316" lon="3.3265">
        <ele>138</ele>
        <time>2017-09-17T18:34:54Z</time>
      </trkpt>
      <trkpt lat="43.65334" lon="3.32739">
        <ele>139</ele>
        <time>2017-09-17T18:34:54Z</time>
      </trkpt>
      <trkpt lat="43.65356" lon="3.3284">
        <ele>139</ele>
        <time>2017-09-17T18:34:54Z</time>
      </trkpt>
      <trkpt lat="43.65378" lon="3.32883">
        <ele>139</ele>
        <time>2017-09-17T18:34:54Z</time>
      </trkpt>
      <trkpt lat="43.65423" lon="3.3294">
        <ele>143</ele>
        <time>2017-09-17T18:34:54Z</time>
      </trkpt>
      <trkpt lat="43.65447" lon="3.32976">
        <ele>144</ele>
        <time>2017-09-17T18:34:54Z</time>
      </trkpt>
      <trkpt lat="43.65492" lon="3.33011">
        <ele>146</ele>
        <time>2017-09-17T18:34:54Z</time>
      </trkpt>
      <trkpt lat="43.6552" lon="3.33061">
        <ele>152</ele>
        <time>2017-09-17T18:34:54Z</time>
      </trkpt>
      <trkpt lat="43.65549" lon="3.33131">
        <ele>146</ele>
        <time>2017-09-17T18:34:54Z</time>
      </trkpt>
      <trkpt lat="43.65584" lon="3.33163">
        <ele>147</ele>
        <time>2017-09-17T18:34:54Z</time>
      </trkpt>
      <trkpt lat="43.65617" lon="3.33206">
        <ele>147</ele>
        <time>2017-09-17T18:34:54Z</time>
      </trkpt>
      <trkpt lat="43.65644" lon="3.33236">
        <ele>147</ele>
        <time>2017-09-17T18:34:54Z</time>
      </trkpt>
      <trkpt lat="43.65674" lon="3.33311">
        <ele>145</ele>
        <time>2017-09-17T18:34:54Z</time>
      </trkpt>
      <trkpt lat="43.65716" lon="3.33346">
        <ele>144</ele>
        <time>2017-09-17T18:34:54Z</time>
      </trkpt>
      <trkpt lat="43.65765" lon="3.33398">
        <ele>149</ele>
        <time>2017-09-17T18:34:54Z</time>
      </trkpt>
      <trkpt lat="43.65804" lon="3.33433">
        <ele>143</ele>
        <time>2017-09-17T18:34:54Z</time>
      </trkpt>
      <trkpt lat="43.65828" lon="3.33433">
        <ele>144</ele>
        <time>2017-09-17T18:34:54Z</time>
      </trkpt>
      <trkpt lat="43.65861" lon="3.33435">
        <ele>146</ele>
        <time>2017-09-17T18:34:54Z</time>
      </trkpt>
      <trkpt lat="43.65884" lon="3.33459">
        <ele>146</ele>
        <time>2017-09-17T18:34:54Z</time>
      </trkpt>
      <trkpt lat="43.65915" lon="3.33484">
        <ele>145</ele>
        <time>2017-09-17T18:34:54Z</time>
      </trkpt>
      <trkpt lat="43.6594" lon="3.33531">
        <ele>147</ele>
        <time>2017-09-17T18:34:54Z</time>
      </trkpt>
      <trkpt lat="43.65976" lon="3.33536">
        <ele>149</ele>
        <time>2017-09-17T18:34:54Z</time>
      </trkpt>
      <trkpt lat="43.66009" lon="3.3354">
        <ele>154</ele>
        <time>2017-09-17T18:34:54Z</time>
      </trkpt>
      <trkpt lat="43.6605" lon="3.33534">
        <ele>156</ele>
        <time>2017-09-17T18:34:54Z</time>
      </trkpt>
      <trkpt lat="43.66068" lon="3.33556">
        <ele>155</ele>
        <time>2017-09-17T18:34:54Z</time>
      </trkpt>
      <trkpt lat="43.66099" lon="3.33552">
        <ele>162</ele>
        <time>2017-09-17T18:34:54Z</time>
      </trkpt>
      <trkpt lat="43.66121" lon="3.33584">
        <ele>154</ele>
        <time>2017-09-17T18:34:54Z</time>
      </trkpt>
      <trkpt lat="43.66137" lon="3.33607">
        <ele>154</ele>
        <time>2017-09-17T18:34:54Z</time>
      </trkpt>
      <trkpt lat="43.66178" lon="3.33611">
        <ele>159</ele>
        <time>2017-09-17T18:34:54Z</time>
      </trkpt>
      <trkpt lat="43.6623" lon="3.33623">
        <ele>159</ele>
        <time>2017-09-17T18:34:54Z</time>
      </trkpt>
      <trkpt lat="43.66295" lon="3.33622">
        <ele>162</ele>
        <time>2017-09-17T18:34:54Z</time>
      </trkpt>
      <trkpt lat="43.66346" lon="3.33618">
        <ele>164</ele>
        <time>2017-09-17T18:34:54Z</time>
      </trkpt>
      <trkpt lat="43.66384" lon="3.33616">
        <ele>164</ele>
        <time>2017-09-17T18:34:54Z</time>
      </trkpt>
      <trkpt lat="43.66385" lon="3.3367">
        <ele>155</ele>
        <time>2017-09-17T18:34:54Z</time>
      </trkpt>
      <trkpt lat="43.66386" lon="3.33717">
        <ele>152</ele>
        <time>2017-09-17T18:34:54Z</time>
      </trkpt>
      <trkpt lat="43.66366" lon="3.33769">
        <ele>148</ele>
        <time>2017-09-17T18:34:54Z</time>
      </trkpt>
      <trkpt lat="43.66359" lon="3.338">
        <ele>147</ele>
        <time>2017-09-17T18:34:54Z</time>
      </trkpt>
      <trkpt lat="43.66358" lon="3.33834">
        <ele>147</ele>
        <time>2017-09-17T18:34:54Z</time>
      </trkpt>
      <trkpt lat="43.66336" lon="3.33841">
        <ele>146</ele>
        <time>2017-09-17T18:34:54Z</time>
      </trkpt>
      <trkpt lat="43.66315" lon="3.33847">
        <ele>144</ele>
        <time>2017-09-17T18:34:54Z</time>
      </trkpt>
      <trkpt lat="43.66293" lon="3.33876">
        <ele>144</ele>
        <time>2017-09-17T18:34:54Z</time>
      </trkpt>
      <trkpt lat="43.66273" lon="3.33896">
        <ele>143</ele>
        <time>2017-09-17T18:34:54Z</time>
      </trkpt>
      <trkpt lat="43.66263" lon="3.33939">
        <ele>145</ele>
        <time>2017-09-17T18:34:54Z</time>
      </trkpt>
      <trkpt lat="43.66229" lon="3.33988">
        <ele>144</ele>
        <time>2017-09-17T18:34:54Z</time>
      </trkpt>
      <trkpt lat="43.66264" lon="3.33993">
        <ele>147</ele>
        <time>2017-09-17T18:34:54Z</time>
      </trkpt>
      <trkpt lat="43.66314" lon="3.33983">
        <ele>149</ele>
        <time>2017-09-17T18:34:54Z</time>
      </trkpt>
      <trkpt lat="43.66354" lon="3.33959">
        <ele>152</ele>
        <time>2017-09-17T18:34:54Z</time>
      </trkpt>
      <trkpt lat="43.66399" lon="3.33931">
        <ele>153.3</ele>
      </trkpt>
      <trkpt lat="43.66414" lon="3.33897">
        <ele>151</ele>
      </trkpt>
      <trkpt lat="43.66448" lon="3.33885">
        <ele>157.9</ele>
      </trkpt>
      <trkpt lat="43.66482" lon="3.33875">
        <ele>160</ele>
        <time>2017-09-17T18:34:54Z</time>
      </trkpt>
      <trkpt lat="43.66513" lon="3.3384">
        <ele>167</ele>
        <time>2017-09-17T18:34:54Z</time>
      </trkpt>
      <trkpt lat="43.66546" lon="3.33822">
        <ele>167</ele>
        <time>2017-09-17T18:34:54Z</time>
      </trkpt>
      <trkpt lat="43.66597" lon="3.33821">
        <ele>177</ele>
        <time>2017-09-17T18:34:54Z</time>
      </trkpt>
      <trkpt lat="43.66637" lon="3.33812">
        <ele>181</ele>
        <time>2017-09-17T18:34:54Z</time>
      </trkpt>
      <trkpt lat="43.66663" lon="3.33782">
        <ele>181</ele>
        <time>2017-09-17T18:34:54Z</time>
      </trkpt>
      <trkpt lat="43.66704" lon="3.33735">
        <ele>185</ele>
        <time>2017-09-17T18:34:54Z</time>
      </trkpt>
      <trkpt lat="43.66742" lon="3.3369">
        <ele>184</ele>
        <time>2017-09-17T18:34:54Z</time>
      </trkpt>
      <trkpt lat="43.66768" lon="3.3366">
        <ele>184</ele>
        <time>2017-09-17T18:34:54Z</time>
      </trkpt>
      <trkpt lat="43.6678" lon="3.33572">
        <ele>183</ele>
        <time>2017-09-17T18:34:54Z</time>
      </trkpt>
      <trkpt lat="43.66819" lon="3.33568">
        <ele>185</ele>
        <time>2017-09-17T18:34:54Z</time>
      </trkpt>
      <trkpt lat="43.6686" lon="3.3357">
        <ele>185</ele>
        <time>2017-09-17T18:34:54Z</time>
      </trkpt>
      <trkpt lat="43.6692" lon="3.33554">
        <ele>183</ele>
        <time>2017-09-17T18:34:54Z</time>
      </trkpt>
      <trkpt lat="43.67008" lon="3.33559">
        <ele>179</ele>
        <time>2017-09-17T18:34:54Z</time>
      </trkpt>
      <trkpt lat="43.67063" lon="3.33537">
        <ele>175</ele>
        <time>2017-09-17T18:34:54Z</time>
      </trkpt>
      <trkpt lat="43.67124" lon="3.33516">
        <ele>169</ele>
        <time>2017-09-17T18:34:54Z</time>
      </trkpt>
      <trkpt lat="43.67169" lon="3.33498">
        <ele>164</ele>
        <time>2017-09-17T18:34:54Z</time>
      </trkpt>
      <trkpt lat="43.67235" lon="3.33518">
        <ele>160</ele>
        <time>2017-09-17T18:34:54Z</time>
      </trkpt>
      <trkpt lat="43.67276" lon="3.33525">
        <ele>156</ele>
        <time>2017-09-17T18:34:54Z</time>
      </trkpt>
      <trkpt lat="43.67317" lon="3.33557">
        <ele>155</ele>
        <time>2017-09-17T18:34:54Z</time>
      </trkpt>
      <trkpt lat="43.67345" lon="3.33597">
        <ele>155</ele>
        <time>2017-09-17T18:34:54Z</time>
      </trkpt>
      <trkpt lat="43.67396" lon="3.33643">
        <ele>156</ele>
        <time>2017-09-17T18:34:54Z</time>
      </trkpt>
      <trkpt lat="43.67445" lon="3.3365">
        <ele>151</ele>
        <time>2017-09-17T18:34:54Z</time>
      </trkpt>
      <trkpt lat="43.67479" lon="3.33628">
        <ele>149</ele>
      </trkpt>
      <trkpt lat="43.67511" lon="3.33654">
        <ele>147</ele>
        <time>2017-09-17T18:34:54Z</time>
      </trkpt>
      <trkpt lat="43.67558" lon="3.33809">
        <ele>153.2</ele>
      </trkpt>
      <trkpt lat="43.67585" lon="3.33857">
        <ele>154</ele>
      </trkpt>
      <trkpt lat="43.67639" lon="3.33893">
        <ele>153</ele>
        <time>2017-09-17T18:34:54Z</time>
      </trkpt>
      <trkpt lat="43.67689" lon="3.34015">
        <ele>146</ele>
        <time>2017-09-17T18:34:54Z</time>
      </trkpt>
      <trkpt lat="43.67733" lon="3.34109">
        <ele>139</ele>
        <time>2017-09-17T18:34:54Z</time>
      </trkpt>
      <trkpt lat="43.67769" lon="3.34187">
        <ele>132</ele>
        <time>2017-09-17T18:34:54Z</time>
      </trkpt>
      <trkpt lat="43.67795" lon="3.34252">
        <ele>129</ele>
        <time>2017-09-17T18:34:54Z</time>
      </trkpt>
      <trkpt lat="43.67797" lon="3.34302">
        <ele>129</ele>
        <time>2017-09-17T18:34:54Z</time>
      </trkpt>
      <trkpt lat="43.67748" lon="3.34326">
        <ele>131</ele>
        <time>2017-09-17T18:34:54Z</time>
      </trkpt>
      <trkpt lat="43.67723" lon="3.3439">
        <ele>135</ele>
        <time>2017-09-17T18:34:54Z</time>
      </trkpt>
      <trkpt lat="43.67707" lon="3.34443">
        <ele>135</ele>
        <time>2017-09-17T18:34:54Z</time>
      </trkpt>
      <trkpt lat="43.6768" lon="3.3449">
        <ele>136</ele>
        <time>2017-09-17T18:34:54Z</time>
      </trkpt>
      <trkpt lat="43.67605" lon="3.34498">
        <ele>139</ele>
        <time>2017-09-17T18:34:54Z</time>
      </trkpt>
      <trkpt lat="43.67583" lon="3.34552">
        <ele>138</ele>
        <time>2017-09-17T18:34:54Z</time>
      </trkpt>
      <trkpt lat="43.67569" lon="3.3462">
        <ele>137</ele>
        <time>2017-09-17T18:34:54Z</time>
      </trkpt>
      <trkpt lat="43.67567" lon="3.34699">
        <ele>138</ele>
        <time>2017-09-17T18:34:54Z</time>
      </trkpt>
      <trkpt lat="43.6754" lon="3.34796">
        <ele>138</ele>
        <time>2017-09-17T18:34:54Z</time>
      </trkpt>
      <trkpt lat="43.67516" lon="3.34865">
        <ele>138</ele>
        <time>2017-09-17T18:34:54Z</time>
      </trkpt>
      <trkpt lat="43.67473" lon="3.34949">
        <ele>141</ele>
        <time>2017-09-17T18:34:54Z</time>
      </trkpt>
      <trkpt lat="43.67439" lon="3.35046">
        <ele>138</ele>
        <time>2017-09-17T18:34:54Z</time>
      </trkpt>
      <trkpt lat="43.67414" lon="3.35131">
        <ele>139</ele>
        <time>2017-09-17T18:34:54Z</time>
      </trkpt>
      <trkpt lat="43.67385" lon="3.35217">
        <ele>138</ele>
        <time>2017-09-17T18:34:54Z</time>
      </trkpt>
      <trkpt lat="43.6732" lon="3.35269">
        <ele>140</ele>
        <time>2017-09-17T18:34:54Z</time>
      </trkpt>
      <trkpt lat="43.6724" lon="3.35312">
        <ele>141</ele>
        <time>2017-09-17T18:34:54Z</time>
      </trkpt>
      <trkpt lat="43.67179" lon="3.35345">
        <ele>140</ele>
        <time>2017-09-17T18:34:54Z</time>
      </trkpt>
      <trkpt lat="43.6716" lon="3.35306">
        <ele>142</ele>
        <time>2017-09-17T18:34:54Z</time>
      </trkpt>
      <trkpt lat="43.67123" lon="3.35293">
        <ele>144</ele>
        <time>2017-09-17T18:34:54Z</time>
      </trkpt>
      <trkpt lat="43.67106" lon="3.35246">
        <ele>147</ele>
        <time>2017-09-17T18:34:54Z</time>
      </trkpt>
      <trkpt lat="43.67087" lon="3.35183">
        <ele>149</ele>
        <time>2017-09-17T18:34:54Z</time>
      </trkpt>
      <trkpt lat="43.67065" lon="3.35134">
        <ele>155</ele>
        <time>2017-09-17T18:34:54Z</time>
      </trkpt>
      <trkpt lat="43.67035" lon="3.35138">
        <ele>156</ele>
        <time>2017-09-17T18:34:54Z</time>
      </trkpt>
      <trkpt lat="43.6701" lon="3.35184">
        <ele>152</ele>
        <time>2017-09-17T18:34:54Z</time>
      </trkpt>
      <trkpt lat="43.66989" lon="3.35246">
        <ele>147</ele>
        <time>2017-09-17T18:34:54Z</time>
      </trkpt>
      <trkpt lat="43.66991" lon="3.35274">
        <ele>144</ele>
        <time>2017-09-17T18:34:54Z</time>
      </trkpt>
      <trkpt lat="43.67005" lon="3.35317">
        <ele>144</ele>
        <time>2017-09-17T18:34:54Z</time>
      </trkpt>
      <trkpt lat="43.67003" lon="3.35351">
        <ele>143</ele>
        <time>2017-09-17T18:34:54Z</time>
      </trkpt>
      <trkpt lat="43.67023" lon="3.35412">
        <ele>142</ele>
        <time>2017-09-17T18:34:54Z</time>
      </trkpt>
      <trkpt lat="43.67046" lon="3.35465">
        <ele>143</ele>
        <time>2017-09-17T18:34:54Z</time>
      </trkpt>
      <trkpt lat="43.6702" lon="3.3553">
        <ele>144</ele>
        <time>2017-09-17T18:34:54Z</time>
      </trkpt>
      <trkpt lat="43.6698" lon="3.35517">
        <ele>141</ele>
        <time>2017-09-17T18:34:54Z</time>
      </trkpt>
      <trkpt lat="43.66948" lon="3.3553">
        <ele>139</ele>
        <time>2017-09-17T18:34:54Z</time>
      </trkpt>
      <trkpt lat="43.66918" lon="3.35587">
        <ele>140</ele>
        <time>2017-09-17T18:34:54Z</time>
      </trkpt>
      <trkpt lat="43.66897" lon="3.35619">
        <ele>139</ele>
        <time>2017-09-17T18:34:54Z</time>
      </trkpt>
      <trkpt lat="43.66874" lon="3.35668">
        <ele>141</ele>
        <time>2017-09-17T18:34:54Z</time>
      </trkpt>
      <trkpt lat="43.66861" lon="3.35713">
        <ele>142</ele>
        <time>2017-09-17T18:34:54Z</time>
      </trkpt>
      <trkpt lat="43.66828" lon="3.35734">
        <ele>139</ele>
        <time>2017-09-17T18:34:54Z</time>
      </trkpt>
      <trkpt lat="43.66769" lon="3.35734">
        <ele>137</ele>
        <time>2017-09-17T18:34:54Z</time>
      </trkpt>
      <trkpt lat="43.66755" lon="3.35796">
        <ele>141</ele>
        <time>2017-09-17T18:34:54Z</time>
      </trkpt>
      <trkpt lat="43.66726" lon="3.35839">
        <ele>142</ele>
        <time>2017-09-17T18:34:54Z</time>
      </trkpt>
      <trkpt lat="43.66684" lon="3.359">
        <ele>141</ele>
        <time>2017-09-17T18:34:54Z</time>
      </trkpt>
      <trkpt lat="43.66659" lon="3.35932">
        <ele>140</ele>
        <time>2017-09-17T18:34:54Z</time>
      </trkpt>
      <trkpt lat="43.66619" lon="3.35995">
        <ele>140</ele>
        <time>2017-09-17T18:34:54Z</time>
      </trkpt>
      <trkpt lat="43.6659" lon="3.36023">
        <ele>140</ele>
      </trkpt>
      <trkpt lat="43.66618" lon="3.36073">
        <ele>140.9</ele>
      </trkpt>
      <trkpt lat="43.6664" lon="3.36134">
        <ele>143</ele>
        <time>2017-09-17T18:34:54Z</time>
      </trkpt>
      <trkpt lat="43.66644" lon="3.36206">
        <ele>144</ele>
        <time>2017-09-17T18:34:54Z</time>
      </trkpt>
      <trkpt lat="43.66642" lon="3.36257">
        <ele>146</ele>
        <time>2017-09-17T18:34:54Z</time>
      </trkpt>
      <trkpt lat="43.66635" lon="3.36275">
        <ele>146</ele>
        <time>2017-09-17T18:34:54Z</time>
      </trkpt>
      <trkpt lat="43.66594" lon="3.36276">
        <ele>144</ele>
        <time>2017-09-17T18:34:54Z</time>
      </trkpt>
      <trkpt lat="43.6656" lon="3.36286">
        <ele>141</ele>
        <time>2017-09-17T18:34:54Z</time>
      </trkpt>
      <trkpt lat="43.66555" lon="3.36383">
        <ele>143</ele>
        <time>2017-09-17T18:34:54Z</time>
      </trkpt>
      <trkpt lat="43.66557" lon="3.36452">
        <ele>146</ele>
        <time>2017-09-17T18:34:54Z</time>
      </trkpt>
      <trkpt lat="43.66512" lon="3.36515">
        <ele>146.7</ele>
      </trkpt>
      <trkpt lat="43.66499" lon="3.36551">
        <ele>141</ele>
      </trkpt>
      <trkpt lat="43.66493" lon="3.36595">
        <ele>143.7</ele>
      </trkpt>
      <trkpt lat="43.66451" lon="3.36672">
        <ele>147.1</ele>
      </trkpt>
      <trkpt lat="43.66429" lon="3.36762">
        <ele>148.5</ele>
      </trkpt>
      <trkpt lat="43.66421" lon="3.36844">
        <ele>150.1</ele>
      </trkpt>
      <trkpt lat="43.66371" lon="3.36922">
        <ele>146</ele>
        <time>2017-09-17T18:34:54Z</time>
      </trkpt>
      <trkpt lat="43.66356" lon="3.36998">
        <ele>145.2</ele>
      </trkpt>
      <trkpt lat="43.66337" lon="3.37056">
        <ele>146</ele>
      </trkpt>
      <trkpt lat="43.66301" lon="3.371">
        <ele>143.2</ele>
      </trkpt>
      <trkpt lat="43.66295" lon="3.3717">
        <ele>142.8</ele>
      </trkpt>
      <trkpt lat="43.6628" lon="3.3725">
        <ele>142</ele>
        <time>2017-09-17T18:34:54Z</time>
      </trkpt>
      <trkpt lat="43.66264" lon="3.37335">
        <ele>143</ele>
        <time>2017-09-17T18:34:54Z</time>
      </trkpt>
      <trkpt lat="43.66257" lon="3.37389">
        <ele>143</ele>
        <time>2017-09-17T18:34:54Z</time>
      </trkpt>
      <trkpt lat="43.66278" lon="3.37454">
        <ele>144</ele>
        <time>2017-09-17T18:34:54Z</time>
      </trkpt>
      <trkpt lat="43.66277" lon="3.37514">
        <ele>143</ele>
      </trkpt>
      <trkpt lat="43.66291" lon="3.37614">
        <ele>147</ele>
        <time>2017-09-17T18:34:54Z</time>
      </trkpt>
      <trkpt lat="43.66283" lon="3.37693">
        <ele>147</ele>
        <time>2017-09-17T18:34:54Z</time>
      </trkpt>
      <trkpt lat="43.66263" lon="3.37765">
        <ele>146.2</ele>
      </trkpt>
      <trkpt lat="43.6623" lon="3.37809">
        <ele>141</ele>
      </trkpt>
      <trkpt lat="43.66212" lon="3.37879">
        <ele>143.7</ele>
      </trkpt>
      <trkpt lat="43.66214" lon="3.37911">
        <ele>145</ele>
      </trkpt>
      <trkpt lat="43.66209" lon="3.37937">
        <ele>150.4</ele>
      </trkpt>
      <trkpt lat="43.66185" lon="3.37947">
        <ele>148</ele>
      </trkpt>
      <trkpt lat="43.66167" lon="3.38006">
        <ele>151</ele>
        <time>2017-09-17T18:34:54Z</time>
      </trkpt>
      <trkpt lat="43.66177" lon="3.38118">
        <ele>163</ele>
        <time>2017-09-17T18:34:54Z</time>
      </trkpt>
      <trkpt lat="43.6615" lon="3.38196">
        <ele>151</ele>
        <time>2017-09-17T18:34:54Z</time>
      </trkpt>
      <trkpt lat="43.66154" lon="3.38339">
        <ele>153</ele>
        <time>2017-09-17T18:34:54Z</time>
      </trkpt>
      <trkpt lat="43.66133" lon="3.38443">
        <ele>152</ele>
      </trkpt>
      <trkpt lat="43.66106" lon="3.38537">
        <ele>150</ele>
      </trkpt>
      <trkpt lat="43.66086" lon="3.3865">
        <ele>147</ele>
        <time>2017-09-17T18:34:54Z</time>
      </trkpt>
      <trkpt lat="43.66065" lon="3.38777">
        <ele>150</ele>
        <time>2017-09-17T18:34:54Z</time>
      </trkpt>
      <trkpt lat="43.66093" lon="3.38756">
        <ele>156</ele>
        <time>2017-09-17T18:34:54Z</time>
      </trkpt>
      <trkpt lat="43.66133" lon="3.38711">
        <ele>158</ele>
        <time>2017-09-17T18:34:54Z</time>
      </trkpt>
      <trkpt lat="43.66134" lon="3.38759">
        <ele>164</ele>
        <time>2017-09-17T18:34:54Z</time>
      </trkpt>
      <trkpt lat="43.6612" lon="3.38815">
        <ele>164</ele>
        <time>2017-09-17T18:34:54Z</time>
      </trkpt>
      <trkpt lat="43.66118" lon="3.38878">
        <ele>171</ele>
        <time>2017-09-17T18:34:54Z</time>
      </trkpt>
      <trkpt lat="43.66117" lon="3.38931">
        <ele>179</ele>
        <time>2017-09-17T18:34:54Z</time>
      </trkpt>
      <trkpt lat="43.66094" lon="3.38992">
        <ele>178</ele>
        <time>2017-09-17T18:34:54Z</time>
      </trkpt>
      <trkpt lat="43.66092" lon="3.39065">
        <ele>186</ele>
        <time>2017-09-17T18:34:54Z</time>
      </trkpt>
      <trkpt lat="43.66098" lon="3.3913">
        <ele>193</ele>
        <time>2017-09-17T18:34:54Z</time>
      </trkpt>
      <trkpt lat="43.66111" lon="3.39209">
        <ele>200</ele>
        <time>2017-09-17T18:34:54Z</time>
      </trkpt>
      <trkpt lat="43.66103" lon="3.39273">
        <ele>206</ele>
        <time>2017-09-17T18:34:54Z</time>
      </trkpt>
      <trkpt lat="43.66134" lon="3.39238">
        <ele>206</ele>
        <time>2017-09-17T18:34:54Z</time>
      </trkpt>
      <trkpt lat="43.66149" lon="3.39176">
        <ele>208</ele>
        <time>2017-09-17T18:34:54Z</time>
      </trkpt>
      <trkpt lat="43.66171" lon="3.39235">
        <ele>223</ele>
        <time>2017-09-17T18:34:54Z</time>
      </trkpt>
      <trkpt lat="43.6614" lon="3.39306">
        <ele>215</ele>
        <time>2017-09-17T18:34:54Z</time>
      </trkpt>
      <trkpt lat="43.66114" lon="3.39364">
        <ele>220</ele>
        <time>2017-09-17T18:34:54Z</time>
      </trkpt>
      <trkpt lat="43.66096" lon="3.39404">
        <ele>221</ele>
        <time>2017-09-17T18:34:54Z</time>
      </trkpt>
      <trkpt lat="43.66099" lon="3.3944">
        <ele>222</ele>
        <time>2017-09-17T18:34:54Z</time>
      </trkpt>
      <trkpt lat="43.66128" lon="3.3946">
        <ele>223</ele>
        <time>2017-09-17T18:34:54Z</time>
      </trkpt>
      <trkpt lat="43.6617" lon="3.39492">
        <ele>222</ele>
        <time>2017-09-17T18:34:54Z</time>
      </trkpt>
      <trkpt lat="43.66223" lon="3.39501">
        <ele>215</ele>
        <time>2017-09-17T18:34:54Z</time>
      </trkpt>
      <trkpt lat="43.6625" lon="3.39506">
        <ele>218</ele>
        <time>2017-09-17T18:34:54Z</time>
      </trkpt>
      <trkpt lat="43.66297" lon="3.39522">
        <ele>217</ele>
        <time>2017-09-17T18:34:54Z</time>
      </trkpt>
      <trkpt lat="43.66332" lon="3.39526">
        <ele>218</ele>
        <time>2017-09-17T18:34:54Z</time>
      </trkpt>
      <trkpt lat="43.66372" lon="3.3951">
        <ele>222</ele>
        <time>2017-09-17T18:34:54Z</time>
      </trkpt>
      <trkpt lat="43.66385" lon="3.39518">
        <ele>222</ele>
        <time>2017-09-17T18:34:54Z</time>
      </trkpt>
      <trkpt lat="43.66382" lon="3.39533">
        <ele>222</ele>
        <time>2017-09-17T18:34:54Z</time>
      </trkpt>
      <trkpt lat="43.66345" lon="3.39564">
        <ele>221</ele>
        <time>2017-09-17T18:34:54Z</time>
      </trkpt>
      <trkpt lat="43.66324" lon="3.39599">
        <ele>218</ele>
        <time>2017-09-17T18:34:54Z</time>
      </trkpt>
      <trkpt lat="43.66289" lon="3.39609">
        <ele>217</ele>
        <time>2017-09-17T18:34:54Z</time>
      </trkpt>
      <trkpt lat="43.66248" lon="3.39644">
        <ele>212</ele>
        <time>2017-09-17T18:34:54Z</time>
      </trkpt>
      <trkpt lat="43.6622" lon="3.39657">
        <ele>210</ele>
        <time>2017-09-17T18:34:54Z</time>
      </trkpt>
      <trkpt lat="43.66189" lon="3.39709">
        <ele>216</ele>
        <time>2017-09-17T18:34:54Z</time>
      </trkpt>
      <trkpt lat="43.66144" lon="3.39715">
        <ele>205</ele>
        <time>2017-09-17T18:34:54Z</time>
      </trkpt>
      <trkpt lat="43.66121" lon="3.39739">
        <ele>205</ele>
      </trkpt>
      <trkpt lat="43.66094" lon="3.39768">
        <ele>213</ele>
        <time>2017-09-17T18:34:54Z</time>
      </trkpt>
      <trkpt lat="43.66042" lon="3.39802">
        <ele>208</ele>
        <time>2017-09-17T18:34:54Z</time>
      </trkpt>
      <trkpt lat="43.65994" lon="3.39854">
        <ele>215</ele>
        <time>2017-09-17T18:34:54Z</time>
      </trkpt>
      <trkpt lat="43.65942" lon="3.39889">
        <ele>215</ele>
        <time>2017-09-17T18:34:54Z</time>
      </trkpt>
      <trkpt lat="43.65889" lon="3.39928">
        <ele>210</ele>
        <time>2017-09-17T18:34:54Z</time>
      </trkpt>
      <trkpt lat="43.65884" lon="3.39977">
        <ele>210</ele>
        <time>2017-09-17T18:34:54Z</time>
      </trkpt>
      <trkpt lat="43.65895" lon="3.40033">
        <ele>210</ele>
        <time>2017-09-17T18:34:54Z</time>
      </trkpt>
      <trkpt lat="43.6593" lon="3.40087">
        <ele>217</ele>
        <time>2017-09-17T18:34:54Z</time>
      </trkpt>
      <trkpt lat="43.65983" lon="3.40151">
        <ele>219</ele>
        <time>2017-09-17T18:34:54Z</time>
      </trkpt>
      <trkpt lat="43.65993" lon="3.40213">
        <ele>210</ele>
        <time>2017-09-17T18:34:54Z</time>
      </trkpt>
      <trkpt lat="43.66017" lon="3.40266">
        <ele>216</ele>
        <time>2017-09-17T18:34:54Z</time>
      </trkpt>
      <trkpt lat="43.66026" lon="3.40311">
        <ele>215</ele>
        <time>2017-09-17T18:34:54Z</time>
      </trkpt>
      <trkpt lat="43.66019" lon="3.40387">
        <ele>210</ele>
        <time>2017-09-17T18:34:54Z</time>
      </trkpt>
      <trkpt lat="43.6603" lon="3.40418">
        <ele>206</ele>
        <time>2017-09-17T18:34:54Z</time>
      </trkpt>
      <trkpt lat="43.66058" lon="3.40467">
        <ele>207</ele>
        <time>2017-09-17T18:34:54Z</time>
      </trkpt>
      <trkpt lat="43.6609" lon="3.40506">
        <ele>205</ele>
        <time>2017-09-17T18:34:54Z</time>
      </trkpt>
      <trkpt lat="43.66073" lon="3.40546">
        <ele>193</ele>
        <time>2017-09-17T18:34:54Z</time>
      </trkpt>
      <trkpt lat="43.66006" lon="3.40492">
        <ele>196</ele>
        <time>2017-09-17T18:34:54Z</time>
      </trkpt>
      <trkpt lat="43.65969" lon="3.40547">
        <ele>171</ele>
        <time>2017-09-17T18:34:54Z</time>
      </trkpt>
      <trkpt lat="43.6597" lon="3.40612">
        <ele>158</ele>
        <time>2017-09-17T18:34:54Z</time>
      </trkpt>
      <trkpt lat="43.66022" lon="3.40701">
        <ele>150</ele>
        <time>2017-09-17T18:34:54Z</time>
      </trkpt>
      <trkpt lat="43.66044" lon="3.40765">
        <ele>135</ele>
        <time>2017-09-17T18:34:54Z</time>
      </trkpt>
      <trkpt lat="43.66033" lon="3.40831">
        <ele>130</ele>
        <time>2017-09-17T18:34:54Z</time>
      </trkpt>
      <trkpt lat="43.6601" lon="3.40857">
        <ele>120</ele>
        <time>2017-09-17T18:34:54Z</time>
      </trkpt>
      <trkpt lat="43.66009" lon="3.40822">
        <ele>127</ele>
        <time>2017-09-17T18:34:54Z</time>
      </trkpt>
      <trkpt lat="43.65974" lon="3.40795">
        <ele>125</ele>
        <time>2017-09-17T18:34:54Z</time>
      </trkpt>
      <trkpt lat="43.65924" lon="3.40724">
        <ele>133</ele>
        <time>2017-09-17T18:34:54Z</time>
      </trkpt>
      <trkpt lat="43.65907" lon="3.40685">
        <ele>128</ele>
        <time>2017-09-17T18:34:54Z</time>
      </trkpt>
      <trkpt lat="43.65894" lon="3.40652">
        <ele>134</ele>
        <time>2017-09-17T18:34:54Z</time>
      </trkpt>
      <trkpt lat="43.6586" lon="3.40624">
        <ele>131</ele>
        <time>2017-09-17T18:34:54Z</time>
      </trkpt>
      <trkpt lat="43.65857" lon="3.40539">
        <ele>139</ele>
        <time>2017-09-17T18:34:54Z</time>
      </trkpt>
      <trkpt lat="43.65851" lon="3.40446">
        <ele>144</ele>
        <time>2017-09-17T18:34:54Z</time>
      </trkpt>
      <trkpt lat="43.65851" lon="3.40402">
        <ele>147</ele>
        <time>2017-09-17T18:34:54Z</time>
      </trkpt>
      <trkpt lat="43.65848" lon="3.40364">
        <ele>151</ele>
        <time>2017-09-17T18:34:54Z</time>
      </trkpt>
      <trkpt lat="43.65827" lon="3.40311">
        <ele>138</ele>
        <time>2017-09-17T18:34:54Z</time>
      </trkpt>
      <trkpt lat="43.65817" lon="3.40264">
        <ele>143</ele>
        <time>2017-09-17T18:34:54Z</time>
      </trkpt>
      <trkpt lat="43.65805" lon="3.40234">
        <ele>150</ele>
        <time>2017-09-17T18:34:54Z</time>
      </trkpt>
      <trkpt lat="43.65797" lon="3.4018">
        <ele>153</ele>
        <time>2017-09-17T18:34:54Z</time>
      </trkpt>
      <trkpt lat="43.65772" lon="3.40143">
        <ele>158</ele>
        <time>2017-09-17T18:34:54Z</time>
      </trkpt>
      <trkpt lat="43.65759" lon="3.40085">
        <ele>157</ele>
        <time>2017-09-17T18:34:54Z</time>
      </trkpt>
      <trkpt lat="43.65748" lon="3.40049">
        <ele>153</ele>
        <time>2017-09-17T18:34:54Z</time>
      </trkpt>
      <trkpt lat="43.65734" lon="3.40015">
        <ele>156</ele>
        <time>2017-09-17T18:34:54Z</time>
      </trkpt>
      <trkpt lat="43.65724" lon="3.39973">
        <ele>157</ele>
        <time>2017-09-17T18:34:54Z</time>
      </trkpt>
      <trkpt lat="43.65726" lon="3.39947">
        <ele>158</ele>
        <time>2017-09-17T18:34:54Z</time>
      </trkpt>
      <trkpt lat="43.65714" lon="3.39923">
        <ele>157</ele>
        <time>2017-09-17T18:34:54Z</time>
      </trkpt>
      <trkpt lat="43.65701" lon="3.39895">
        <ele>155</ele>
        <time>2017-09-17T18:34:54Z</time>
      </trkpt>
      <trkpt lat="43.65685" lon="3.39887">
        <ele>153</ele>
        <time>2017-09-17T18:34:54Z</time>
      </trkpt>
      <trkpt lat="43.65689" lon="3.39924">
        <ele>152</ele>
        <time>2017-09-17T18:34:54Z</time>
      </trkpt>
      <trkpt lat="43.65703" lon="3.39979">
        <ele>154</ele>
        <time>2017-09-17T18:34:54Z</time>
      </trkpt>
      <trkpt lat="43.65711" lon="3.40013">
        <ele>152</ele>
        <time>2017-09-17T18:34:54Z</time>
      </trkpt>
      <trkpt lat="43.65704" lon="3.40031">
        <ele>150</ele>
        <time>2017-09-17T18:34:54Z</time>
      </trkpt>
      <trkpt lat="43.65649" lon="3.40105">
        <ele>133</ele>
        <time>2017-09-17T18:34:54Z</time>
      </trkpt>
      <trkpt lat="43.65583" lon="3.40192">
        <ele>135</ele>
        <time>2017-09-17T18:34:54Z</time>
      </trkpt>
      <trkpt lat="43.65536" lon="3.40262">
        <ele>133</ele>
        <time>2017-09-17T18:34:54Z</time>
      </trkpt>
      <trkpt lat="43.65494" lon="3.40323">
        <ele>146</ele>
        <time>2017-09-17T18:34:54Z</time>
      </trkpt>
      <trkpt lat="43.65451" lon="3.40282">
        <ele>150</ele>
        <time>2017-09-17T18:34:54Z</time>
      </trkpt>
      <trkpt lat="43.65406" lon="3.40232">
        <ele>149</ele>
        <time>2017-09-17T18:34:54Z</time>
      </trkpt>
      <trkpt lat="43.6536" lon="3.40211">
        <ele>152</ele>
        <time>2017-09-17T18:34:54Z</time>
      </trkpt>
      <trkpt lat="43.65319" lon="3.40196">
        <ele>164</ele>
        <time>2017-09-17T18:34:54Z</time>
      </trkpt>
      <trkpt lat="43.653" lon="3.40188">
        <ele>167</ele>
        <time>2017-09-17T18:34:54Z</time>
      </trkpt>
      <trkpt lat="43.65281" lon="3.40172">
        <ele>171</ele>
        <time>2017-09-17T18:34:54Z</time>
      </trkpt>
      <trkpt lat="43.65283" lon="3.40119">
        <ele>162</ele>
        <time>2017-09-17T18:34:54Z</time>
      </trkpt>
      <trkpt lat="43.65283" lon="3.40078">
        <ele>157</ele>
        <time>2017-09-17T18:34:54Z</time>
      </trkpt>
      <trkpt lat="43.6524" lon="3.40026">
        <ele>170</ele>
        <time>2017-09-17T18:34:54Z</time>
      </trkpt>
      <trkpt lat="43.65212" lon="3.39985">
        <ele>161</ele>
        <time>2017-09-17T18:34:54Z</time>
      </trkpt>
      <trkpt lat="43.65177" lon="3.39977">
        <ele>165</ele>
        <time>2017-09-17T18:34:54Z</time>
      </trkpt>
      <trkpt lat="43.65153" lon="3.39967">
        <ele>178</ele>
        <time>2017-09-17T18:34:54Z</time>
      </trkpt>
      <trkpt lat="43.65139" lon="3.39945">
        <ele>178</ele>
        <time>2017-09-17T18:34:54Z</time>
      </trkpt>
      <trkpt lat="43.65132" lon="3.39894">
        <ele>178</ele>
        <time>2017-09-17T18:34:54Z</time>
      </trkpt>
      <trkpt lat="43.65154" lon="3.39839">
        <ele>174</ele>
        <time>2017-09-17T18:34:54Z</time>
      </trkpt>
      <trkpt lat="43.65152" lon="3.39732">
        <ele>178</ele>
        <time>2017-09-17T18:34:54Z</time>
      </trkpt>
      <trkpt lat="43.65148" lon="3.39616">
        <ele>178</ele>
        <time>2017-09-17T18:34:54Z</time>
      </trkpt>
      <trkpt lat="43.65151" lon="3.39555">
        <ele>179</ele>
        <time>2017-09-17T18:34:54Z</time>
      </trkpt>
      <trkpt lat="43.65165" lon="3.39506">
        <ele>176</ele>
        <time>2017-09-17T18:34:54Z</time>
      </trkpt>
      <trkpt lat="43.65161" lon="3.39421">
        <ele>179</ele>
        <time>2017-09-17T18:34:54Z</time>
      </trkpt>
      <trkpt lat="43.65156" lon="3.39319">
        <ele>179</ele>
        <time>2017-09-17T18:34:54Z</time>
      </trkpt>
      <trkpt lat="43.65142" lon="3.39235">
        <ele>182</ele>
        <time>2017-09-17T18:34:54Z</time>
      </trkpt>
      <trkpt lat="43.65117" lon="3.3916">
        <ele>187</ele>
        <time>2017-09-17T18:34:54Z</time>
      </trkpt>
      <trkpt lat="43.65087" lon="3.3911">
        <ele>188</ele>
        <time>2017-09-17T18:34:54Z</time>
      </trkpt>
      <trkpt lat="43.65062" lon="3.39077">
        <ele>186</ele>
        <time>2017-09-17T18:34:54Z</time>
      </trkpt>
      <trkpt lat="43.65024" lon="3.39058">
        <ele>182</ele>
        <time>2017-09-17T18:34:54Z</time>
      </trkpt>
      <trkpt lat="43.64972" lon="3.39049">
        <ele>172</ele>
        <time>2017-09-17T18:34:54Z</time>
      </trkpt>
      <trkpt lat="43.64913" lon="3.39051">
        <ele>165</ele>
        <time>2017-09-17T18:34:54Z</time>
      </trkpt>
      <trkpt lat="43.64911" lon="3.39017">
        <ele>164</ele>
        <time>2017-09-17T18:34:54Z</time>
      </trkpt>
      <trkpt lat="43.64901" lon="3.3897">
        <ele>159</ele>
        <time>2017-09-17T18:34:54Z</time>
      </trkpt>
      <trkpt lat="43.64886" lon="3.38928">
        <ele>158</ele>
        <time>2017-09-17T18:34:54Z</time>
      </trkpt>
      <trkpt lat="43.64863" lon="3.389">
        <ele>153</ele>
        <time>2017-09-17T18:34:54Z</time>
      </trkpt>
      <trkpt lat="43.64836" lon="3.38876">
        <ele>152</ele>
        <time>2017-09-17T18:34:54Z</time>
      </trkpt>
      <trkpt lat="43.64812" lon="3.3884">
        <ele>147</ele>
        <time>2017-09-17T18:34:54Z</time>
      </trkpt>
      <trkpt lat="43.64787" lon="3.38871">
        <ele>146</ele>
        <time>2017-09-17T18:34:54Z</time>
      </trkpt>
      <trkpt lat="43.64751" lon="3.38913">
        <ele>145</ele>
        <time>2017-09-17T18:34:54Z</time>
      </trkpt>
      <trkpt lat="43.64736" lon="3.38941">
        <ele>145</ele>
        <time>2017-09-17T18:34:54Z</time>
      </trkpt>
      <trkpt lat="43.64715" lon="3.38908">
        <ele>144</ele>
        <time>2017-09-17T18:34:54Z</time>
      </trkpt>
      <trkpt lat="43.64697" lon="3.38886">
        <ele>144</ele>
        <time>2017-09-17T18:34:54Z</time>
      </trkpt>
      <trkpt lat="43.64688" lon="3.38889">
        <ele>144</ele>
        <time>2017-09-17T18:34:54Z</time>
      </trkpt>
      <trkpt lat="43.6468" lon="3.38887">
        <ele>144</ele>
        <time>2017-09-17T18:34:54Z</time>
      </trkpt>
    </trkseg>
  </trk>
</gpx>